| time (UTC) | temp F | wind direction | speed MPH | gust MPH | rain 1hr in | rain 24hr in | rain mn in | humidity % | barometer mb |
| 20260510050104 | 89 | 154 | 6.0 | 9.0 | 0.00 | 0.00 | 0.00 | 55 | 1010.4 |
| 20260510050009 | 89 | 107 | 5.0 | 9.0 | 0.00 | 0.00 | 0.00 | 55 | 1010.4 |
| 20260510045905 | 89 | 101 | 5.0 | 9.0 | 0.00 | 0.00 | 0.00 | 55 | 1010.4 |
| 20260510045803 | 89 | 120 | 4.0 | 9.0 | 0.00 | 0.00 | 0.00 | 56 | 1010.4 |
| 20260510045704 | 89 | 129 | 4.0 | 9.0 | 0.00 | 0.00 | 0.00 | 56 | 1010.4 |
| 20260510045604 | 89 | 167 | 5.0 | 9.0 | 0.00 | 0.00 | 0.00 | 56 | 1010.4 |
| 20260510045504 | 88 | 130 | 5.0 | 9.0 | 0.00 | 0.00 | 0.00 | 56 | 1010.4 |
| 20260510045404 | 88 | 189 | 4.0 | 9.0 | 0.00 | 0.00 | 0.00 | 56 | 1010.4 |
| 20260510045202 | 88 | 213 | 5.0 | 9.0 | 0.00 | 0.00 | 0.00 | 56 | 1010.3 |
| 20260510044903 | 88 | 136 | 5.0 | 9.0 | 0.00 | 0.00 | 0.00 | 56 | 1010.4 |
| 20260510044803 | 88 | 126 | 5.0 | 9.0 | 0.00 | 0.00 | 0.00 | 57 | 1010.2 |
| 20260510044704 | 88 | 123 | 4.0 | 9.0 | 0.00 | 0.00 | 0.00 | 57 | 1010.3 |
| 20260510044604 | 88 | 146 | 4.0 | 9.0 | 0.00 | 0.00 | 0.00 | 57 | 1010.3 |
| 20260510044404 | 88 | 132 | 4.0 | 9.0 | 0.00 | 0.00 | 0.00 | 57 | 1010.3 |
| 20260510044305 | 88 | 115 | 5.0 | 9.0 | 0.00 | 0.00 | 0.00 | 57 | 1010.3 |
| 20260510044203 | 88 | 135 | 6.0 | 9.0 | 0.00 | 0.00 | 0.00 | 57 | 1010.3 |
| 20260510044102 | 88 | 176 | 6.0 | 9.0 | 0.00 | 0.00 | 0.00 | 56 | 1010.3 |
| 20260510044008 | 88 | 160 | 7.0 | 9.0 | 0.00 | 0.00 | 0.00 | 56 | 1010.4 |
| 20260510043902 | 88 | 155 | 5.0 | 10.0 | 0.00 | 0.00 | 0.00 | 57 | 1010.3 |
| 20260510043804 | 88 | 171 | 4.0 | 9.0 | 0.00 | 0.00 | 0.00 | 57 | 1010.3 |
| 20260510043703 | 88 | 157 | 6.0 | 9.0 | 0.00 | 0.00 | 0.00 | 56 | 1010.3 |
| 20260510043602 | 88 | 150 | 6.0 | 9.0 | 0.00 | 0.00 | 0.00 | 57 | 1010.3 |
| 20260510043505 | 88 | 171 | 6.0 | 11.0 | 0.00 | 0.00 | 0.00 | 57 | 1010.3 |
| 20260510043205 | 87 | 167 | 6.0 | 9.0 | 0.00 | 0.00 | 0.00 | 57 | 1010.4 |
| 20260510043007 | 87 | 141 | 6.0 | 10.0 | 0.00 | 0.00 | 0.00 | 57 | 1010.3 |
| 20260510042905 | 87 | 148 | 6.0 | 10.0 | 0.00 | 0.00 | 0.00 | 57 | 1010.4 |
| 20260510042705 | 87 | 129 | 5.0 | 10.0 | 0.00 | 0.00 | 0.00 | 57 | 1010.3 |
| 20260510042605 | 87 | 167 | 6.0 | 10.0 | 0.00 | 0.00 | 0.00 | 57 | 1010.3 |
| 20260510042508 | 87 | 179 | 6.0 | 10.0 | 0.00 | 0.00 | 0.00 | 57 | 1010.3 |
| 20260510042404 | 87 | 182 | 7.0 | 10.0 | 0.00 | 0.00 | 0.00 | 57 | 1010.2 |
| 20260510042306 | 87 | 175 | 6.0 | 10.0 | 0.00 | 0.00 | 0.00 | 57 | 1010.2 |
| 20260510042203 | 87 | 169 | 6.0 | 10.0 | 0.00 | 0.00 | 0.00 | 57 | 1010.2 |
| 20260510042104 | 87 | 168 | 7.0 | 10.0 | 0.00 | 0.00 | 0.00 | 57 | 1010.2 |
| 20260510042007 | 87 | 169 | 6.0 | 11.0 | 0.00 | 0.00 | 0.00 | 57 | 1010.2 |
| 20260510041903 | 87 | 173 | 5.0 | 9.0 | 0.00 | 0.00 | 0.00 | 57 | 1010.3 |
| 20260510041804 | 87 | 163 | 6.0 | 11.0 | 0.00 | 0.00 | 0.00 | 57 | 1010.2 |
| 20260510041705 | 87 | 163 | 6.0 | 11.0 | 0.00 | 0.00 | 0.00 | 57 | 1010.3 |
| 20260510041603 | 87 | 130 | 7.0 | 11.0 | 0.00 | 0.00 | 0.00 | 57 | 1010.2 |
| 20260510041504 | 87 | 169 | 7.0 | 11.0 | 0.00 | 0.00 | 0.00 | 57 | 1010.1 |
| 20260510041402 | 87 | 151 | 7.0 | 11.0 | 0.00 | 0.00 | 0.00 | 57 | 1010.2 |
| 20260510041303 | 87 | 131 | 7.0 | 11.0 | 0.00 | 0.00 | 0.00 | 57 | 1010.2 |
| 20260510041204 | 87 | 130 | 7.0 | 11.0 | 0.00 | 0.00 | 0.00 | 58 | 1010.2 |
| 20260510041102 | 87 | 154 | 7.0 | 11.0 | 0.00 | 0.00 | 0.00 | 57 | 1010.2 |
| 20260510041006 | 87 | 144 | 7.0 | 12.0 | 0.00 | 0.00 | 0.00 | 57 | 1010.2 |
| 20260510040904 | 87 | 192 | 6.0 | 11.0 | 0.00 | 0.00 | 0.00 | 57 | 1010.2 |
| 20260510040804 | 87 | 173 | 7.0 | 11.0 | 0.00 | 0.00 | 0.00 | 57 | 1010.2 |
| 20260510040604 | 87 | 162 | 5.0 | 11.0 | 0.00 | 0.00 | 0.00 | 58 | 1010.2 |
| 20260510040304 | 87 | 129 | 7.0 | 12.0 | 0.00 | 0.00 | 0.00 | 57 | 1010.2 |
| 20260510040204 | 87 | 117 | 7.0 | 12.0 | 0.00 | 0.00 | 0.00 | 58 | 1010.2 |
| 20260510040007 | 87 | 143 | 6.0 | 13.0 | 0.00 | 0.00 | 0.00 | 57 | 1010.2 |
| 20260510035903 | 87 | 128 | 7.0 | 13.0 | 0.00 | 0.00 | 0.00 | 57 | 1010.2 |
| 20260510035804 | 87 | 174 | 8.0 | 13.0 | 0.00 | 0.00 | 0.00 | 58 | 1010.2 |
| 20260510035704 | 87 | 186 | 7.0 | 13.0 | 0.00 | 0.00 | 0.00 | 57 | 1010.2 |
| 20260510035602 | 87 | 167 | 9.0 | 13.0 | 0.00 | 0.00 | 0.00 | 57 | 1010.2 |
| 20260510035506 | 87 | 167 | 10.0 | 13.0 | 0.00 | 0.00 | 0.00 | 57 | 1010.3 |
| 20260510035203 | 87 | 121 | 5.0 | 10.0 | 0.00 | 0.00 | 0.00 | 59 | 1010.2 |
| 20260510035103 | 86 | 120 | 5.0 | 10.0 | 0.00 | 0.00 | 0.00 | 59 | 1010.2 |
| 20260510035006 | 86 | 149 | 5.0 | 11.0 | 0.00 | 0.00 | 0.00 | 59 | 1010.1 |
| 20260510034705 | 86 | 202 | 6.0 | 11.0 | 0.00 | 0.00 | 0.00 | 59 | 1010.1 |
| 20260510034604 | 86 | 138 | 6.0 | 11.0 | 0.00 | 0.00 | 0.00 | 59 | 1010.1 |
| 20260510034403 | 86 | 159 | 4.0 | 11.0 | 0.00 | 0.00 | 0.00 | 59 | 1010.1 |
| 20260510034303 | 86 | 132 | 6.0 | 11.0 | 0.00 | 0.00 | 0.00 | 59 | 1010.1 |
| 20260510034201 | 86 | 169 | 8.0 | 11.0 | 0.00 | 0.00 | 0.00 | 59 | 1010.1 |
| 20260510034118 | 86 | 172 | 6.0 | 11.0 | 0.00 | 0.00 | 0.00 | 59 | 1010.0 |
| 20260510034007 | 86 | 175 | 5.0 | 9.0 | 0.00 | 0.00 | 0.00 | 60 | 1010.0 |
| 20260510033804 | 86 | 207 | 5.0 | 9.0 | 0.00 | 0.00 | 0.00 | 60 | 1009.9 |
| 20260510033702 | 86 | 162 | 5.0 | 9.0 | 0.00 | 0.00 | 0.00 | 60 | 1010.0 |
| 20260510033603 | 86 | 177 | 6.0 | 9.0 | 0.00 | 0.00 | 0.00 | 60 | 1010.1 |
| 20260510033506 | 86 | 151 | 6.0 | 9.0 | 0.00 | 0.00 | 0.00 | 60 | 1010.1 |
| 20260510033404 | 86 | 190 | 4.0 | 8.0 | 0.00 | 0.00 | 0.00 | 60 | 1010.1 |
| 20260510033304 | 86 | 132 | 4.0 | 8.0 | 0.00 | 0.00 | 0.00 | 60 | 1010.1 |
| 20260510033203 | 86 | 169 | 5.0 | 8.0 | 0.00 | 0.00 | 0.00 | 60 | 1010.0 |
| 20260510033104 | 86 | 169 | 5.0 | 9.0 | 0.00 | 0.00 | 0.00 | 60 | 1010.0 |
| 20260510033007 | 86 | 181 | 4.0 | 8.0 | 0.00 | 0.00 | 0.00 | 61 | 1009.9 |
| 20260510032903 | 86 | 203 | 3.0 | 8.0 | 0.00 | 0.00 | 0.00 | 61 | 1010.0 |
| 20260510032804 | 86 | 130 | 3.0 | 8.0 | 0.00 | 0.00 | 0.00 | 61 | 1010.0 |
| 20260510032704 | 86 | 123 | 4.0 | 8.0 | 0.00 | 0.00 | 0.00 | 61 | 1009.9 |
| 20260510032604 | 86 | 182 | 4.0 | 8.0 | 0.00 | 0.00 | 0.00 | 61 | 1010.0 |
| 20260510032506 | 86 | 153 | 4.0 | 8.0 | 0.00 | 0.00 | 0.00 | 61 | 1009.9 |
| 20260510032402 | 86 | 132 | 4.0 | 8.0 | 0.00 | 0.00 | 0.00 | 61 | 1010.0 |
| 20260510032306 | 85 | 133 | 2.0 | 8.0 | 0.00 | 0.00 | 0.00 | 61 | 1009.9 |
| 20260510032203 | 85 | 175 | 2.0 | 8.0 | 0.00 | 0.00 | 0.00 | 61 | 1009.9 |
| 20260510032102 | 85 | 147 | 3.0 | 8.0 | 0.00 | 0.00 | 0.00 | 61 | 1009.9 |
| 20260510031903 | 85 | 138 | 4.0 | 9.0 | 0.00 | 0.00 | 0.00 | 61 | 1010.0 |
| 20260510031704 | 85 | 122 | 4.0 | 10.0 | 0.00 | 0.00 | 0.00 | 61 | 1010.0 |
| 20260510031602 | 85 | 144 | 4.0 | 10.0 | 0.00 | 0.00 | 0.00 | 61 | 1009.9 |
| 20260510031404 | 85 | 165 | 4.0 | 10.0 | 0.00 | 0.00 | 0.00 | 61 | 1009.8 |
| 20260510031307 | 85 | 139 | 6.0 | 10.0 | 0.00 | 0.00 | 0.00 | 61 | 1009.9 |
| 20260510031205 | 85 | 132 | 6.0 | 10.0 | 0.00 | 0.00 | 0.00 | 61 | 1009.9 |
| 20260510031105 | 85 | 98 | 6.0 | 10.0 | 0.00 | 0.00 | 0.00 | 61 | 1009.8 |
| 20260510031006 | 85 | 120 | 6.0 | 10.0 | 0.00 | 0.00 | 0.00 | 61 | 1009.8 |
| 20260510030902 | 85 | 132 | 6.0 | 9.0 | 0.00 | 0.00 | 0.00 | 61 | 1009.8 |
| 20260510030802 | 85 | 121 | 6.0 | 9.0 | 0.00 | 0.00 | 0.00 | 61 | 1009.8 |
| 20260510030704 | 85 | 151 | 5.0 | 9.0 | 0.00 | 0.00 | 0.00 | 61 | 1009.8 |
| 20260510030604 | 85 | 111 | 3.0 | 9.0 | 0.00 | 0.00 | 0.00 | 62 | 1009.8 |
| 20260510030506 | 85 | 123 | 1.0 | 8.0 | 0.00 | 0.00 | 0.00 | 62 | 1009.7 |
| 20260510030404 | 85 | 80 | 1.0 | 8.0 | 0.00 | 0.00 | 0.00 | 62 | 1009.7 |
| 20260510030303 | 85 | 127 | 3.0 | 8.0 | 0.00 | 0.00 | 0.00 | 62 | 1009.7 |
| 20260510030203 | 85 | 138 | 4.0 | 8.0 | 0.00 | 0.00 | 0.00 | 62 | 1009.7 |
| 20260510030104 | 85 | 153 | 5.0 | 8.0 | 0.00 | 0.00 | 0.00 | 62 | 1009.6 |
| 20260510030008 | 85 | 140 | 5.0 | 8.0 | 0.00 | 0.00 | 0.00 | 62 | 1009.6 |
| 20260510025903 | 85 | 148 | 4.0 | 7.0 | 0.00 | 0.00 | 0.00 | 62 | 1009.6 |
| 20260510025804 | 85 | 124 | 4.0 | 7.0 | 0.00 | 0.00 | 0.00 | 62 | 1009.5 |
| 20260510025704 | 85 | 167 | 4.0 | 7.0 | 0.00 | 0.00 | 0.00 | 62 | 1009.5 |
| 20260510025604 | 84 | 172 | 3.0 | 7.0 | 0.00 | 0.00 | 0.00 | 62 | 1009.5 |
| 20260510025402 | 84 | 164 | 3.0 | 6.0 | 0.00 | 0.00 | 0.00 | 62 | 1009.4 |
| 20260510025202 | 84 | 106 | 5.0 | 6.0 | 0.00 | 0.00 | 0.00 | 62 | 1009.4 |
| 20260510025105 | 84 | 98 | 5.0 | 6.0 | 0.00 | 0.00 | 0.00 | 62 | 1009.4 |
| 20260510025006 | 84 | 135 | 4.0 | 9.0 | 0.00 | 0.00 | 0.00 | 63 | 1009.4 |
| 20260510024904 | 84 | 167 | 3.0 | 9.0 | 0.00 | 0.00 | 0.00 | 63 | 1009.4 |
| 20260510024605 | 84 | 136 | 3.0 | 9.0 | 0.00 | 0.00 | 0.00 | 63 | 1009.4 |
| 20260510024506 | 84 | 146 | 4.0 | 9.0 | 0.00 | 0.00 | 0.00 | 63 | 1009.4 |
| 20260510024303 | 84 | 135 | 5.0 | 9.0 | 0.00 | 0.00 | 0.00 | 63 | 1009.3 |
| 20260510024205 | 84 | 102 | 5.0 | 9.0 | 0.00 | 0.00 | 0.00 | 62 | 1009.3 |
| 20260510024008 | 84 | 118 | 2.0 | 8.0 | 0.00 | 0.00 | 0.00 | 63 | 1009.3 |
| 20260510023805 | 84 | 125 | 2.0 | 8.0 | 0.00 | 0.00 | 0.00 | 63 | 1009.4 |
| 20260510023703 | 84 | 127 | 3.0 | 9.0 | 0.00 | 0.00 | 0.00 | 63 | 1009.3 |
| 20260510023603 | 83 | 41 | 4.0 | 9.0 | 0.00 | 0.00 | 0.00 | 63 | 1009.2 |
| 20260510023506 | 83 | 142 | 4.0 | 9.0 | 0.00 | 0.00 | 0.00 | 63 | 1009.2 |
| 20260510023306 | 83 | 105 | 5.0 | 9.0 | 0.00 | 0.00 | 0.00 | 63 | 1009.2 |
| 20260510023204 | 83 | 121 | 5.0 | 9.0 | 0.00 | 0.00 | 0.00 | 63 | 1009.2 |
| 20260510023102 | 83 | 112 | 5.0 | 9.0 | 0.00 | 0.00 | 0.00 | 63 | 1009.3 |
| 20260510023007 | 83 | 144 | 5.0 | 9.0 | 0.00 | 0.00 | 0.00 | 63 | 1009.1 |
| 20260510022906 | 83 | 115 | 4.0 | 9.0 | 0.00 | 0.00 | 0.00 | 63 | 1009.2 |
| 20260510022803 | 83 | 101 | 3.0 | 9.0 | 0.00 | 0.00 | 0.00 | 63 | 1009.2 |
| 20260510022701 | 83 | 101 | 4.0 | 9.0 | 0.00 | 0.00 | 0.00 | 63 | 1009.2 |
| 20260510022609 | 83 | 128 | 5.0 | 9.0 | 0.00 | 0.00 | 0.00 | 63 | 1009.2 |
| 20260510022404 | 83 | 99 | 3.0 | 9.0 | 0.00 | 0.00 | 0.00 | 63 | 1009.2 |
| 20260510022306 | 83 | 113 | 3.0 | 9.0 | 0.00 | 0.00 | 0.00 | 63 | 1009.1 |
| 20260510022204 | 83 | 101 | 3.0 | 9.0 | 0.00 | 0.00 | 0.00 | 63 | 1009.0 |
| 20260510022007 | 83 | 109 | 5.0 | 9.0 | 0.00 | 0.00 | 0.00 | 63 | 1009.1 |
| 20260510021905 | 83 | 115 | 5.0 | 9.0 | 0.00 | 0.00 | 0.00 | 63 | 1009.0 |
| 20260510021804 | 83 | 118 | 5.0 | 9.0 | 0.00 | 0.00 | 0.00 | 63 | 1009.0 |
| 20260510021704 | 83 | 87 | 5.0 | 9.0 | 0.00 | 0.00 | 0.00 | 63 | 1009.1 |
| 20260510021603 | 83 | 114 | 5.0 | 9.0 | 0.00 | 0.00 | 0.00 | 63 | 1009.0 |
| 20260510021507 | 83 | 115 | 5.0 | 9.0 | 0.00 | 0.00 | 0.00 | 63 | 1009.1 |
| 20260510021403 | 83 | 122 | 5.0 | 9.0 | 0.00 | 0.00 | 0.00 | 63 | 1009.0 |
| 20260510021302 | 83 | 111 | 6.0 | 9.0 | 0.00 | 0.00 | 0.00 | 63 | 1009.1 |
| 20260510021101 | 83 | 112 | 5.0 | 9.0 | 0.00 | 0.00 | 0.00 | 63 | 1009.0 |
| 20260510021006 | 83 | 105 | 4.0 | 8.0 | 0.00 | 0.00 | 0.00 | 63 | 1009.1 |
| 20260510020803 | 83 | 113 | 3.0 | 8.0 | 0.00 | 0.00 | 0.00 | 63 | 1009.1 |
| 20260510020504 | 83 | 105 | 3.0 | 8.0 | 0.00 | 0.00 | 0.00 | 63 | 1009.1 |
| 20260510020405 | 83 | 119 | 5.0 | 8.0 | 0.00 | 0.00 | 0.00 | 63 | 1009.1 |
| 20260510020302 | 83 | 123 | 4.0 | 8.0 | 0.00 | 0.00 | 0.00 | 63 | 1009.1 |
| 20260510020202 | 83 | 123 | 3.0 | 8.0 | 0.00 | 0.00 | 0.00 | 63 | 1009.1 |
| 20260510015902 | 83 | 103 | 4.0 | 10.0 | 0.00 | 0.00 | 0.00 | 63 | 1009.1 |
| 20260510015802 | 83 | 115 | 4.0 | 10.0 | 0.00 | 0.00 | 0.00 | 63 | 1009.1 |
| 20260510015703 | 83 | 125 | 4.0 | 10.0 | 0.00 | 0.00 | 0.00 | 63 | 1009.1 |
| 20260510015603 | 83 | 105 | 4.0 | 10.0 | 0.00 | 0.00 | 0.00 | 63 | 1009.1 |
| 20260510015403 | 83 | 125 | 4.0 | 10.0 | 0.00 | 0.00 | 0.00 | 63 | 1009.1 |
| 20260510015306 | 83 | 104 | 6.0 | 10.0 | 0.00 | 0.00 | 0.00 | 63 | 1009.1 |
| 20260510015205 | 83 | 134 | 5.0 | 10.0 | 0.00 | 0.00 | 0.00 | 63 | 1009.1 |
| 20260510015101 | 83 | 116 | 4.0 | 8.0 | 0.00 | 0.00 | 0.00 | 63 | 1009.1 |
| 20260510014804 | 83 | 146 | 5.0 | 9.0 | 0.00 | 0.00 | 0.00 | 63 | 1009.0 |
| 20260510014604 | 83 | 105 | 3.0 | 10.0 | 0.00 | 0.00 | 0.00 | 63 | 1008.9 |
| 20260510014505 | 83 | 150 | 3.0 | 10.0 | 0.00 | 0.00 | 0.00 | 63 | 1008.9 |
| 20260510014404 | 83 | 113 | 3.0 | 10.0 | 0.00 | 0.00 | 0.00 | 63 | 1008.9 |
| 20260510014305 | 82 | 117 | 5.0 | 10.0 | 0.00 | 0.00 | 0.00 | 63 | 1008.9 |
| 20260510014204 | 82 | 144 | 6.0 | 10.0 | 0.00 | 0.00 | 0.00 | 63 | 1008.8 |
| 20260510014008 | 82 | 123 | 5.0 | 10.0 | 0.00 | 0.00 | 0.00 | 64 | 1008.9 |
| 20260510013804 | 82 | 113 | 5.0 | 10.0 | 0.00 | 0.00 | 0.00 | 64 | 1008.8 |
| 20260510013703 | 82 | 103 | 4.0 | 9.0 | 0.00 | 0.00 | 0.00 | 64 | 1008.8 |
| 20260510013604 | 82 | 96 | 5.0 | 9.0 | 0.00 | 0.00 | 0.00 | 64 | 1008.8 |
| 20260510013506 | 82 | 100 | 6.0 | 9.0 | 0.00 | 0.00 | 0.00 | 64 | 1008.7 |
| 20260510013402 | 82 | 142 | 4.0 | 9.0 | 0.00 | 0.00 | 0.00 | 64 | 1008.6 |
| 20260510013304 | 82 | 143 | 4.0 | 9.0 | 0.00 | 0.00 | 0.00 | 65 | 1008.7 |
| 20260510013203 | 82 | 135 | 4.0 | 8.0 | 0.00 | 0.00 | 0.00 | 64 | 1008.7 |
| 20260510013102 | 82 | 112 | 5.0 | 8.0 | 0.00 | 0.00 | 0.00 | 65 | 1008.7 |
| 20260510013005 | 82 | 128 | 6.0 | 8.0 | 0.00 | 0.00 | 0.00 | 65 | 1008.6 |
| 20260510012904 | 82 | 114 | 6.0 | 8.0 | 0.00 | 0.00 | 0.00 | 65 | 1008.6 |
| 20260510012802 | 82 | 107 | 6.0 | 8.0 | 0.00 | 0.00 | 0.00 | 65 | 1008.7 |
| 20260510012702 | 82 | 92 | 4.0 | 8.0 | 0.00 | 0.00 | 0.00 | 65 | 1008.7 |
| 20260510012602 | 82 | 112 | 4.0 | 8.0 | 0.00 | 0.00 | 0.00 | 65 | 1008.7 |
| 20260510012506 | 82 | 105 | 3.0 | 8.0 | 0.00 | 0.00 | 0.00 | 65 | 1008.6 |
| 20260510012402 | 82 | 115 | 3.0 | 8.0 | 0.00 | 0.00 | 0.00 | 65 | 1008.7 |
| 20260510012306 | 82 | 98 | 4.0 | 8.0 | 0.00 | 0.00 | 0.00 | 66 | 1008.6 |
| 20260510012203 | 82 | 165 | 4.0 | 8.0 | 0.00 | 0.00 | 0.00 | 66 | 1008.6 |
| 20260510012105 | 82 | 101 | 4.0 | 8.0 | 0.00 | 0.00 | 0.00 | 66 | 1008.6 |
| 20260510011903 | 82 | 96 | 2.0 | 7.0 | 0.00 | 0.00 | 0.00 | 66 | 1008.9 |
| 20260510011604 | 82 | 98 | 4.0 | 7.0 | 0.00 | 0.00 | 0.00 | 66 | 1008.5 |
| 20260510011505 | 82 | 99 | 3.0 | 7.0 | 0.00 | 0.00 | 0.00 | 66 | 1008.6 |
| 20260510011404 | 82 | 99 | 4.0 | 7.0 | 0.00 | 0.00 | 0.00 | 66 | 1008.5 |
| 20260510011304 | 82 | 84 | 4.0 | 7.0 | 0.00 | 0.00 | 0.00 | 66 | 1008.6 |
| 20260510011204 | 82 | 92 | 3.0 | 7.0 | 0.00 | 0.00 | 0.00 | 67 | 1008.5 |
| 20260510011104 | 81 | 49 | 3.0 | 6.0 | 0.00 | 0.00 | 0.00 | 67 | 1008.5 |
| 20260510011007 | 81 | 108 | 2.0 | 4.0 | 0.00 | 0.00 | 0.00 | 67 | 1008.4 |
| 20260510010803 | 81 | 95 | 2.0 | 4.0 | 0.00 | 0.00 | 0.00 | 67 | 1008.5 |
| 20260510010603 | 81 | 112 | 2.0 | 4.0 | 0.00 | 0.00 | 0.00 | 67 | 1008.4 |
| 20260510010507 | 81 | 69 | 2.0 | 4.0 | 0.00 | 0.00 | 0.00 | 67 | 1008.4 |
| 20260510010404 | 81 | 98 | 2.0 | 4.0 | 0.00 | 0.00 | 0.00 | 67 | 1008.5 |
| 20260510010303 | 81 | 73 | 3.0 | 4.0 | 0.00 | 0.00 | 0.00 | 67 | 1008.4 |
| 20260510010202 | 81 | 112 | 2.0 | 4.0 | 0.00 | 0.00 | 0.00 | 67 | 1008.4 |
| 20260510010104 | 81 | 92 | 1.0 | 4.0 | 0.00 | 0.00 | 0.00 | 67 | 1008.5 |
| 20260510010008 | 81 | 106 | 1.0 | 4.0 | 0.00 | 0.00 | 0.00 | 68 | 1008.4 |
| 20260510005903 | 81 | 116 | 0.0 | 4.0 | 0.00 | 0.00 | 0.00 | 68 | 1008.3 |
| 20260510005801 | 81 | 113 | 1.0 | 4.0 | 0.00 | 0.00 | 0.00 | 68 | 1008.3 |
| 20260510005505 | 81 | 84 | 2.0 | 4.0 | 0.00 | 0.00 | 0.00 | 68 | 1008.3 |
| 20260510005405 | 81 | 98 | 2.0 | 4.0 | 0.00 | 0.00 | 0.00 | 68 | 1008.3 |
| 20260510005005 | 81 | 90 | 0.0 | 4.0 | 0.00 | 0.00 | 0.00 | 68 | 1008.3 |
| 20260510004903 | 81 | 115 | 1.0 | 4.0 | 0.00 | 0.00 | 0.00 | 68 | 1008.4 |
| 20260510004804 | 81 | 79 | 2.0 | 4.0 | 0.00 | 0.00 | 0.00 | 68 | 1008.4 |
| 20260510004704 | 81 | 101 | 1.0 | 4.0 | 0.00 | 0.00 | 0.00 | 68 | 1008.4 |
| 20260510004604 | 81 | 108 | 1.0 | 4.0 | 0.00 | 0.00 | 0.00 | 68 | 1008.3 |
| 20260510004402 | 81 | 84 | 1.0 | 4.0 | 0.00 | 0.00 | 0.00 | 68 | 1008.4 |
| 20260510004304 | 81 | 88 | 1.0 | 4.0 | 0.00 | 0.00 | 0.00 | 68 | 1008.4 |
| 20260510004204 | 81 | 115 | 2.0 | 4.0 | 0.00 | 0.00 | 0.00 | 68 | 1008.3 |
| 20260510004008 | 81 | 103 | 2.0 | 4.0 | 0.00 | 0.00 | 0.00 | 68 | 1008.3 |
| 20260510003904 | 81 | 105 | 1.0 | 4.0 | 0.00 | 0.00 | 0.00 | 68 | 1008.3 |
| 20260510003802 | 81 | 108 | 1.0 | 4.0 | 0.00 | 0.00 | 0.00 | 68 | 1008.3 |
| 20260510003702 | 81 | 112 | 1.0 | 4.0 | 0.00 | 0.00 | 0.00 | 68 | 1008.3 |
| 20260510003603 | 81 | 105 | 1.0 | 4.0 | 0.00 | 0.00 | 0.00 | 68 | 1008.2 |
| 20260510003508 | 81 | 64 | 1.0 | 4.0 | 0.00 | 0.00 | 0.00 | 68 | 1008.3 |
| 20260510003404 | 81 | 121 | 2.0 | 4.0 | 0.00 | 0.00 | 0.00 | 68 | 1008.3 |
| 20260510003303 | 81 | 132 | 2.0 | 4.0 | 0.00 | 0.00 | 0.00 | 68 | 1008.3 |
| 20260510003204 | 81 | 132 | 2.0 | 4.0 | 0.00 | 0.00 | 0.00 | 68 | 1008.4 |
| 20260510003103 | 81 | 145 | 2.0 | 4.0 | 0.00 | 0.00 | 0.00 | 68 | 1008.4 |
| 20260510002903 | 81 | 115 | 1.0 | 3.0 | 0.00 | 0.00 | 0.00 | 68 | 1008.4 |
| 20260510002703 | 81 | 92 | 1.0 | 2.0 | 0.00 | 0.00 | 0.00 | 68 | 1008.4 |
| 20260510002603 | 81 | 48 | 1.0 | 2.0 | 0.00 | 0.00 | 0.00 | 69 | 1008.4 |
| 20260510002504 | 81 | 107 | 1.0 | 2.0 | 0.00 | 0.00 | 0.00 | 69 | 1008.4 |
| 20260510002404 | 81 | 92 | 1.0 | 2.0 | 0.00 | 0.00 | 0.00 | 69 | 1008.4 |
| 20260510002306 | 81 | 144 | 1.0 | 2.0 | 0.00 | 0.00 | 0.00 | 69 | 1008.5 |
| 20260510002205 | 81 | 108 | 1.0 | 2.0 | 0.00 | 0.00 | 0.00 | 69 | 1008.4 |
| 20260510002006 | 81 | 144 | 1.0 | 2.0 | 0.00 | 0.00 | 0.00 | 69 | 1008.4 |
| 20260510001802 | 81 | 161 | 1.0 | 3.0 | 0.00 | 0.00 | 0.00 | 69 | 1008.5 |
| 20260510001703 | 81 | 135 | 0.0 | 3.0 | 0.00 | 0.00 | 0.00 | 69 | 1008.4 |
| 20260510001603 | 81 | 111 | 0.0 | 3.0 | 0.00 | 0.00 | 0.00 | 69 | 1008.4 |
| 20260510001401 | 81 | 82 | 0.0 | 3.0 | 0.00 | 0.00 | 0.00 | 69 | 1008.4 |
| 20260510001303 | 81 | 132 | 0.0 | 3.0 | 0.00 | 0.00 | 0.00 | 69 | 1008.5 |
| 20260510001204 | 81 | 113 | 1.0 | 3.0 | 0.00 | 0.00 | 0.00 | 69 | 1008.5 |
| 20260510001103 | 81 | 127 | 1.0 | 3.0 | 0.00 | 0.00 | 0.00 | 69 | 1008.5 |
| 20260510001005 | 81 | 107 | 2.0 | 3.0 | 0.00 | 0.00 | 0.00 | 69 | 1008.4 |
| 20260510000804 | 81 | 119 | 1.0 | 2.0 | 0.00 | 0.00 | 0.00 | 69 | 1008.4 |
| 20260510000701 | 81 | 83 | 1.0 | 3.0 | 0.00 | 0.00 | 0.00 | 69 | 1008.4 |
| 20260510000504 | 81 | 111 | 1.0 | 3.0 | 0.00 | 0.00 | 0.00 | 69 | 1008.4 |
| 20260510000404 | 81 | 114 | 1.0 | 3.0 | 0.00 | 0.00 | 0.00 | 69 | 1008.4 |
| 20260510000304 | 81 | 103 | 1.0 | 3.0 | 0.00 | 0.00 | 0.00 | 69 | 1008.4 |
| 20260510000204 | 81 | 86 | 1.0 | 3.0 | 0.00 | 0.00 | 0.00 | 68 | 1008.4 |
| 20260510000007 | 81 | 69 | 1.0 | 3.0 | 0.00 | 0.00 | 0.00 | 68 | 1008.3 |
| 20260509235903 | 81 | 98 | 2.0 | 3.0 | 0.00 | 0.00 | 0.00 | 68 | 1008.3 |
| 20260509235802 | 81 | 65 | 1.0 | 3.0 | 0.00 | 0.00 | 0.00 | 68 | 1008.3 |
| 20260509235702 | 81 | 96 | 1.0 | 3.0 | 0.00 | 0.00 | 0.00 | 68 | 1008.3 |
| 20260509235505 | 81 | 96 | 1.0 | 3.0 | 0.00 | 0.00 | 0.00 | 68 | 1008.4 |
| 20260509235402 | 81 | 108 | 1.0 | 3.0 | 0.00 | 0.00 | 0.00 | 68 | 1008.3 |
| 20260509235306 | 81 | 112 | 2.0 | 3.0 | 0.00 | 0.00 | 0.00 | 68 | 1008.3 |
| 20260509235103 | 81 | 98 | 1.0 | 3.0 | 0.00 | 0.00 | 0.00 | 68 | 1008.3 |
| 20260509235004 | 81 | 55 | 1.0 | 3.0 | 0.00 | 0.00 | 0.00 | 68 | 1008.4 |
| 20260509234902 | 81 | 76 | 1.0 | 3.0 | 0.00 | 0.00 | 0.00 | 68 | 1008.3 |
| 20260509234804 | 81 | 101 | 1.0 | 3.0 | 0.00 | 0.00 | 0.00 | 68 | 1008.3 |
| 20260509234703 | 81 | 96 | 1.0 | 3.0 | 0.00 | 0.00 | 0.00 | 68 | 1008.2 |
| 20260509234602 | 81 | 129 | 1.0 | 3.0 | 0.00 | 0.00 | 0.00 | 68 | 1008.3 |
| 20260509234504 | 81 | 120 | 1.0 | 3.0 | 0.00 | 0.00 | 0.00 | 68 | 1008.3 |
| 20260509234402 | 81 | 126 | 0.0 | 3.0 | 0.00 | 0.00 | 0.00 | 68 | 1008.3 |
| 20260509234301 | 81 | 103 | 1.0 | 3.0 | 0.00 | 0.00 | 0.00 | 68 | 1008.3 |
| 20260509233803 | 82 | 127 | 0.0 | 3.0 | 0.00 | 0.00 | 0.00 | 68 | 1008.2 |
| 20260509233702 | 82 | 80 | 0.0 | 3.0 | 0.00 | 0.00 | 0.00 | 68 | 1008.2 |
| 20260509233602 | 82 | 86 | 1.0 | 3.0 | 0.00 | 0.00 | 0.00 | 68 | 1008.2 |
| 20260509233504 | 81 | 104 | 1.0 | 3.0 | 0.00 | 0.00 | 0.00 | 68 | 1008.2 |
| 20260509233402 | 82 | 68 | 1.0 | 3.0 | 0.00 | 0.00 | 0.00 | 68 | 1008.2 |
| 20260509233303 | 82 | 91 | 1.0 | 3.0 | 0.00 | 0.00 | 0.00 | 68 | 1008.1 |
| 20260509233101 | 82 | 53 | 1.0 | 3.0 | 0.00 | 0.00 | 0.00 | 68 | 1008.2 |
| 20260509233005 | 82 | 78 | 1.0 | 3.0 | 0.00 | 0.00 | 0.00 | 68 | 1008.2 |
| 20260509232902 | 82 | 74 | 1.0 | 3.0 | 0.00 | 0.00 | 0.00 | 68 | 1008.2 |
| 20260509232803 | 82 | 86 | 1.0 | 3.0 | 0.00 | 0.00 | 0.00 | 68 | 1008.2 |
| 20260509232702 | 81 | 83 | 1.0 | 3.0 | 0.00 | 0.00 | 0.00 | 68 | 1008.2 |
| 20260509232602 | 82 | 98 | 1.0 | 4.0 | 0.00 | 0.00 | 0.00 | 68 | 1008.2 |
| 20260509232503 | 82 | 102 | 1.0 | 4.0 | 0.00 | 0.00 | 0.00 | 68 | 1008.1 |
| 20260509232403 | 82 | 65 | 1.0 | 4.0 | 0.00 | 0.00 | 0.00 | 68 | 1008.1 |
| 20260509232305 | 82 | 55 | 1.0 | 4.0 | 0.00 | 0.00 | 0.00 | 68 | 1008.1 |
| 20260509232203 | 82 | 81 | 0.0 | 4.0 | 0.00 | 0.00 | 0.00 | 68 | 1008.1 |
| 20260509232101 | 82 | 128 | 1.0 | 4.0 | 0.00 | 0.00 | 0.00 | 68 | 1008.2 |
| 20260509232005 | 82 | 83 | 1.0 | 4.0 | 0.00 | 0.00 | 0.00 | 68 | 1008.1 |
| 20260509231803 | 82 | 69 | 2.0 | 4.0 | 0.00 | 0.00 | 0.00 | 68 | 1008.1 |
| 20260509231702 | 82 | 71 | 1.0 | 4.0 | 0.00 | 0.00 | 0.00 | 68 | 1008.1 |
| 20260509231602 | 82 | 86 | 1.0 | 4.0 | 0.00 | 0.00 | 0.00 | 68 | 1008.1 |
| 20260509231403 | 82 | 58 | 0.0 | 4.0 | 0.00 | 0.00 | 0.00 | 68 | 1008.2 |
| 20260509231302 | 82 | 81 | 0.0 | 4.0 | 0.00 | 0.00 | 0.00 | 68 | 1008.1 |
| 20260509231202 | 82 | 72 | 1.0 | 4.0 | 0.00 | 0.00 | 0.00 | 68 | 1008.1 |
| 20260509231103 | 82 | 98 | 2.0 | 4.0 | 0.00 | 0.00 | 0.00 | 68 | 1008.1 |
| 20260509231004 | 82 | 75 | 2.0 | 4.0 | 0.00 | 0.00 | 0.00 | 68 | 1008.1 |
| 20260509230901 | 82 | 75 | 1.0 | 4.0 | 0.00 | 0.00 | 0.00 | 68 | 1008.0 |
| 20260509230803 | 82 | 72 | 2.0 | 4.0 | 0.00 | 0.00 | 0.00 | 68 | 1008.0 |
| 20260509230702 | 82 | 94 | 2.0 | 4.0 | 0.00 | 0.00 | 0.00 | 68 | 1008.0 |
| 20260509230604 | 82 | 98 | 2.0 | 4.0 | 0.00 | 0.00 | 0.00 | 68 | 1008.0 |
| 20260509230504 | 82 | 70 | 1.0 | 4.0 | 0.00 | 0.00 | 0.00 | 68 | 1008.0 |
| 20260509230402 | 82 | 68 | 1.0 | 4.0 | 0.00 | 0.00 | 0.00 | 68 | 1008.0 |
| 20260509230302 | 82 | 86 | 0.0 | 4.0 | 0.00 | 0.00 | 0.00 | 68 | 1008.0 |
| 20260509230203 | 81 | 73 | 0.0 | 4.0 | 0.00 | 0.00 | 0.00 | 68 | 1008.0 |
| 20260509230009 | 82 | 69 | 1.0 | 4.0 | 0.00 | 0.00 | 0.00 | 68 | 1008.0 |
| 20260509225902 | 82 | 67 | 1.0 | 4.0 | 0.00 | 0.00 | 0.00 | 68 | 1008.0 |
| 20260509225802 | 82 | 123 | 1.0 | 4.0 | 0.00 | 0.00 | 0.00 | 68 | 1007.8 |
| 20260509225702 | 82 | 43 | 2.0 | 4.0 | 0.00 | 0.00 | 0.00 | 68 | 1007.8 |
| 20260509225602 | 81 | 80 | 2.0 | 4.0 | 0.00 | 0.00 | 0.00 | 68 | 1007.8 |
| 20260509225401 | 82 | 60 | 2.0 | 4.0 | 0.00 | 0.00 | 0.00 | 68 | 1007.7 |
| 20260509225305 | 82 | 83 | 1.0 | 4.0 | 0.00 | 0.00 | 0.00 | 68 | 1007.8 |
| 20260509225202 | 82 | 57 | 1.0 | 4.0 | 0.00 | 0.00 | 0.00 | 68 | 1007.8 |
| 20260509225006 | 82 | 38 | 1.0 | 4.0 | 0.00 | 0.00 | 0.00 | 68 | 1007.8 |
| 20260509224902 | 81 | 70 | 1.0 | 4.0 | 0.00 | 0.00 | 0.00 | 68 | 1007.8 |
| 20260509224802 | 81 | 83 | 1.0 | 4.0 | 0.00 | 0.00 | 0.00 | 68 | 1007.7 |
| 20260509224703 | 81 | 76 | 1.0 | 4.0 | 0.00 | 0.00 | 0.00 | 68 | 1007.7 |
| 20260509224602 | 81 | 76 | 1.0 | 4.0 | 0.00 | 0.00 | 0.00 | 68 | 1007.8 |
| 20260509224504 | 81 | 46 | 1.0 | 4.0 | 0.00 | 0.00 | 0.00 | 68 | 1007.8 |
| 20260509224403 | 81 | 53 | 1.0 | 4.0 | 0.00 | 0.00 | 0.00 | 68 | 1007.8 |
| 20260509224303 | 81 | 56 | 1.0 | 4.0 | 0.00 | 0.00 | 0.00 | 68 | 1007.8 |
| 20260509224201 | 81 | 49 | 2.0 | 4.0 | 0.00 | 0.00 | 0.00 | 68 | 1007.8 |
| 20260509224006 | 81 | 98 | 1.0 | 4.0 | 0.00 | 0.00 | 0.00 | 68 | 1007.8 |
| 20260509223904 | 81 | 100 | 1.0 | 4.0 | 0.00 | 0.00 | 0.00 | 68 | 1007.8 |
| 20260509223802 | 81 | 80 | 1.0 | 4.0 | 0.00 | 0.00 | 0.00 | 68 | 1007.8 |
| 20260509223703 | 81 | 51 | 1.0 | 4.0 | 0.00 | 0.00 | 0.00 | 68 | 1007.8 |
| 20260509223603 | 81 | 15 | 1.0 | 4.0 | 0.00 | 0.00 | 0.00 | 68 | 1007.8 |
| 20260509223403 | 81 | 89 | 2.0 | 3.0 | 0.00 | 0.00 | 0.00 | 68 | 1007.7 |
| 20260509223302 | 81 | 86 | 2.0 | 3.0 | 0.00 | 0.00 | 0.00 | 68 | 1007.7 |
| 20260509223202 | 81 | 65 | 1.0 | 4.0 | 0.00 | 0.00 | 0.00 | 68 | 1007.7 |
| 20260509223103 | 81 | 24 | 1.0 | 4.0 | 0.00 | 0.00 | 0.00 | 68 | 1007.7 |
| 20260509223007 | 81 | 63 | 1.0 | 4.0 | 0.00 | 0.00 | 0.00 | 68 | 1007.7 |
| 20260509222901 | 81 | 49 | 1.0 | 5.0 | 0.00 | 0.00 | 0.00 | 68 | 1007.7 |
| 20260509222802 | 81 | 78 | 1.0 | 5.0 | 0.00 | 0.00 | 0.00 | 68 | 1007.7 |
| 20260509222703 | 81 | 101 | 1.0 | 5.0 | 0.00 | 0.00 | 0.00 | 68 | 1007.8 |
| 20260509222603 | 81 | 121 | 1.0 | 5.0 | 0.00 | 0.00 | 0.00 | 68 | 1007.8 |
| 20260509222504 | 81 | 73 | 2.0 | 5.0 | 0.00 | 0.00 | 0.00 | 68 | 1007.7 |
| 20260509222302 | 81 | 90 | 2.0 | 5.0 | 0.00 | 0.00 | 0.00 | 68 | 1007.7 |
| 20260509222203 | 81 | 103 | 3.0 | 5.0 | 0.00 | 0.00 | 0.00 | 68 | 1007.7 |
| 20260509222102 | 81 | 69 | 2.0 | 5.0 | 0.00 | 0.00 | 0.00 | 68 | 1007.7 |
| 20260509222007 | 81 | 73 | 2.0 | 4.0 | 0.00 | 0.00 | 0.00 | 68 | 1007.7 |
| 20260509221902 | 81 | 65 | 2.0 | 4.0 | 0.00 | 0.00 | 0.00 | 68 | 1007.8 |
| 20260509221702 | 81 | 91 | 2.0 | 4.0 | 0.00 | 0.00 | 0.00 | 68 | 1007.8 |
| 20260509221602 | 81 | 60 | 2.0 | 4.0 | 0.00 | 0.00 | 0.00 | 68 | 1007.7 |
| 20260509221503 | 81 | 83 | 1.0 | 3.0 | 0.00 | 0.00 | 0.00 | 68 | 1007.8 |
| 20260509221401 | 81 | 71 | 1.0 | 3.0 | 0.00 | 0.00 | 0.00 | 68 | 1007.8 |
| 20260509221202 | 81 | 65 | 1.0 | 3.0 | 0.00 | 0.00 | 0.00 | 68 | 1007.8 |
| 20260509221102 | 81 | 55 | 1.0 | 3.0 | 0.00 | 0.00 | 0.00 | 68 | 1007.8 |
| 20260509221004 | 81 | 71 | 1.0 | 3.0 | 0.00 | 0.00 | 0.00 | 68 | 1007.8 |
| 20260509220901 | 81 | 75 | 2.0 | 3.0 | 0.00 | 0.00 | 0.00 | 68 | 1007.8 |
| 20260509220802 | 81 | 80 | 2.0 | 3.0 | 0.00 | 0.00 | 0.00 | 68 | 1007.8 |
| 20260509220704 | 81 | 61 | 2.0 | 3.0 | 0.00 | 0.00 | 0.00 | 68 | 1007.8 |
| 20260509220603 | 81 | 54 | 2.0 | 3.0 | 0.00 | 0.00 | 0.00 | 68 | 1007.7 |
| 20260509220402 | 81 | 72 | 1.0 | 3.0 | 0.00 | 0.00 | 0.00 | 68 | 1007.7 |
| 20260509220302 | 81 | 68 | 1.0 | 3.0 | 0.00 | 0.00 | 0.00 | 68 | 1007.8 |
| 20260509220205 | 81 | 43 | 1.0 | 3.0 | 0.00 | 0.00 | 0.00 | 68 | 1007.9 |
| 20260509220010 | 81 | 101 | 1.0 | 3.0 | 0.00 | 0.00 | 0.00 | 68 | 1007.8 |
| 20260509215902 | 81 | 67 | 1.0 | 3.0 | 0.00 | 0.00 | 0.00 | 68 | 1007.8 |
| 20260509215702 | 81 | 105 | 1.0 | 3.0 | 0.00 | 0.00 | 0.00 | 68 | 1007.8 |
| 20260509215603 | 81 | 104 | 1.0 | 3.0 | 0.00 | 0.00 | 0.00 | 68 | 1007.8 |
| 20260509215506 | 81 | 99 | 1.0 | 3.0 | 0.00 | 0.00 | 0.00 | 68 | 1007.7 |
| 20260509215403 | 81 | 74 | 1.0 | 3.0 | 0.00 | 0.00 | 0.00 | 68 | 1007.8 |
| 20260509215202 | 81 | 104 | 1.0 | 3.0 | 0.00 | 0.00 | 0.00 | 68 | 1007.7 |
| 20260509215102 | 81 | 116 | 1.0 | 3.0 | 0.00 | 0.00 | 0.00 | 68 | 1007.8 |
| 20260509215005 | 81 | 74 | 2.0 | 3.0 | 0.00 | 0.00 | 0.00 | 68 | 1007.7 |
| 20260509214903 | 81 | 66 | 2.0 | 3.0 | 0.00 | 0.00 | 0.00 | 68 | 1007.8 |
| 20260509214801 | 81 | 69 | 2.0 | 3.0 | 0.00 | 0.00 | 0.00 | 68 | 1007.8 |
| 20260509214702 | 81 | 55 | 2.0 | 3.0 | 0.00 | 0.00 | 0.00 | 68 | 1007.8 |
| 20260509214603 | 81 | 70 | 2.0 | 3.0 | 0.00 | 0.00 | 0.00 | 68 | 1007.8 |
| 20260509214504 | 81 | 61 | 1.0 | 3.0 | 0.00 | 0.00 | 0.00 | 68 | 1007.8 |
| 20260509214403 | 81 | 44 | 1.0 | 3.0 | 0.00 | 0.00 | 0.00 | 68 | 1007.8 |
| 20260509214303 | 81 | 51 | 1.0 | 3.0 | 0.00 | 0.00 | 0.00 | 68 | 1007.7 |
| 20260509214203 | 81 | 51 | 1.0 | 3.0 | 0.00 | 0.00 | 0.00 | 68 | 1007.7 |
| 20260509214102 | 81 | 40 | 2.0 | 3.0 | 0.00 | 0.00 | 0.00 | 68 | 1007.8 |
| 20260509214005 | 81 | 61 | 2.0 | 3.0 | 0.00 | 0.00 | 0.00 | 68 | 1007.8 |
| 20260509213903 | 81 | 44 | 2.0 | 3.0 | 0.00 | 0.00 | 0.00 | 68 | 1007.8 |
| 20260509213801 | 81 | 63 | 1.0 | 3.0 | 0.00 | 0.00 | 0.00 | 68 | 1007.8 |
| 20260509213701 | 81 | 49 | 1.0 | 3.0 | 0.00 | 0.00 | 0.00 | 68 | 1007.7 |
| 20260509213603 | 81 | 52 | 1.0 | 3.0 | 0.00 | 0.00 | 0.00 | 68 | 1007.7 |
| 20260509213504 | 81 | 93 | 1.0 | 4.0 | 0.00 | 0.00 | 0.00 | 68 | 1007.7 |
| 20260509213401 | 81 | 90 | 2.0 | 5.0 | 0.00 | 0.00 | 0.00 | 68 | 1007.7 |
| 20260509213302 | 81 | 74 | 1.0 | 5.0 | 0.00 | 0.00 | 0.00 | 68 | 1007.7 |
| 20260509213106 | 81 | 40 | 2.0 | 5.0 | 0.00 | 0.00 | 0.00 | 68 | 1007.7 |
| 20260509212901 | 81 | 48 | 2.0 | 5.0 | 0.00 | 0.00 | 0.00 | 68 | 1007.7 |
| 20260509212805 | 81 | 45 | 3.0 | 5.0 | 0.00 | 0.00 | 0.00 | 68 | 1007.7 |
| 20260509212703 | 81 | 59 | 3.0 | 5.0 | 0.00 | 0.00 | 0.00 | 68 | 1007.7 |
| 20260509212602 | 81 | 44 | 3.0 | 5.0 | 0.00 | 0.00 | 0.00 | 68 | 1007.7 |
| 20260509212503 | 81 | 51 | 4.0 | 5.0 | 0.00 | 0.00 | 0.00 | 68 | 1007.7 |
| 20260509212306 | 81 | 45 | 3.0 | 5.0 | 0.00 | 0.00 | 0.00 | 68 | 1007.7 |
| 20260509212100 | 81 | 60 | 4.0 | 6.0 | 0.00 | 0.00 | 0.00 | 67 | 1007.8 |
| 20260509212006 | 81 | 72 | 4.0 | 6.0 | 0.00 | 0.00 | 0.00 | 67 | 1007.8 |
| 20260509211900 | 81 | 53 | 4.0 | 6.0 | 0.00 | 0.00 | 0.00 | 67 | 1007.7 |
| 20260509211803 | 82 | 48 | 4.0 | 6.0 | 0.00 | 0.00 | 0.00 | 67 | 1007.7 |
| 20260509211704 | 82 | 46 | 4.0 | 6.0 | 0.00 | 0.00 | 0.00 | 67 | 1007.7 |
| 20260509211603 | 82 | 57 | 4.0 | 6.0 | 0.00 | 0.00 | 0.00 | 66 | 1007.7 |
| 20260509211505 | 82 | 71 | 4.0 | 6.0 | 0.00 | 0.00 | 0.00 | 66 | 1007.7 |
| 20260509211403 | 82 | 61 | 3.0 | 6.0 | 0.00 | 0.00 | 0.00 | 66 | 1007.7 |
| 20260509211302 | 82 | 57 | 2.0 | 5.0 | 0.00 | 0.00 | 0.00 | 66 | 1007.7 |
| 20260509211203 | 82 | 56 | 2.0 | 4.0 | 0.00 | 0.00 | 0.00 | 66 | 1007.7 |
| 20260509211101 | 82 | 15 | 2.0 | 4.0 | 0.00 | 0.00 | 0.00 | 66 | 1007.7 |
| 20260509210803 | 82 | 29 | 1.0 | 3.0 | 0.00 | 0.00 | 0.00 | 66 | 1007.7 |
| 20260509210703 | 82 | 49 | 1.0 | 3.0 | 0.00 | 0.00 | 0.00 | 66 | 1007.6 |
| 20260509210604 | 82 | 30 | 2.0 | 3.0 | 0.00 | 0.00 | 0.00 | 65 | 1007.7 |
| 20260509210504 | 82 | 26 | 2.0 | 4.0 | 0.00 | 0.00 | 0.00 | 65 | 1007.7 |
| 20260509210403 | 82 | 42 | 2.0 | 4.0 | 0.00 | 0.00 | 0.00 | 65 | 1007.7 |
| 20260509210303 | 82 | 33 | 2.0 | 4.0 | 0.00 | 0.00 | 0.00 | 65 | 1007.7 |
| 20260509210204 | 82 | 46 | 2.0 | 4.0 | 0.00 | 0.00 | 0.00 | 65 | 1007.7 |
| 20260509210007 | 82 | 47 | 2.0 | 4.0 | 0.00 | 0.00 | 0.00 | 65 | 1007.7 |
| 20260509205903 | 82 | 40 | 2.0 | 4.0 | 0.00 | 0.00 | 0.00 | 65 | 1007.6 |
| 20260509205803 | 83 | 41 | 2.0 | 4.0 | 0.00 | 0.00 | 0.00 | 65 | 1007.6 |
| 20260509205704 | 83 | 48 | 3.0 | 4.0 | 0.00 | 0.00 | 0.00 | 64 | 1007.6 |
| 20260509205604 | 83 | 42 | 2.0 | 4.0 | 0.00 | 0.00 | 0.00 | 64 | 1007.7 |
| 20260509205503 | 83 | 40 | 1.0 | 2.0 | 0.00 | 0.00 | 0.00 | 64 | 1007.6 |
| 20260509205401 | 83 | 5 | 0.0 | 2.0 | 0.00 | 0.00 | 0.00 | 64 | 1007.7 |
| 20260509205307 | 83 | 23 | 1.0 | 3.0 | 0.00 | 0.00 | 0.00 | 64 | 1007.7 |
| 20260509205202 | 83 | 24 | 1.0 | 3.0 | 0.00 | 0.00 | 0.00 | 64 | 1007.6 |
| 20260509205105 | 83 | 24 | 1.0 | 3.0 | 0.00 | 0.00 | 0.00 | 64 | 1007.6 |
| 20260509205005 | 83 | 351 | 1.0 | 3.0 | 0.00 | 0.00 | 0.00 | 64 | 1007.7 |
| 20260509204903 | 83 | 34 | 1.0 | 3.0 | 0.00 | 0.00 | 0.00 | 64 | 1007.7 |
| 20260509204804 | 83 | 14 | 1.0 | 3.0 | 0.00 | 0.00 | 0.00 | 63 | 1007.7 |
| 20260509204704 | 83 | 20 | 1.0 | 3.0 | 0.00 | 0.00 | 0.00 | 63 | 1007.6 |
| 20260509204603 | 83 | 9 | 2.0 | 3.0 | 0.00 | 0.00 | 0.00 | 63 | 1007.6 |
| 20260509204402 | 84 | 60 | 2.0 | 3.0 | 0.00 | 0.00 | 0.00 | 63 | 1007.6 |
| 20260509204304 | 84 | 50 | 1.0 | 3.0 | 0.00 | 0.00 | 0.00 | 63 | 1007.6 |
| 20260509204203 | 84 | 19 | 0.0 | 3.0 | 0.00 | 0.00 | 0.00 | 63 | 1007.6 |
| 20260509204104 | 84 | 26 | 1.0 | 3.0 | 0.00 | 0.00 | 0.00 | 63 | 1007.7 |
| 20260509204008 | 84 | 32 | 1.0 | 3.0 | 0.00 | 0.00 | 0.00 | 62 | 1007.7 |
| 20260509203902 | 84 | 22 | 1.0 | 3.0 | 0.00 | 0.00 | 0.00 | 62 | 1007.7 |
| 20260509203802 | 84 | 24 | 1.0 | 2.0 | 0.00 | 0.00 | 0.00 | 62 | 1007.7 |
| 20260509203703 | 84 | 5 | 0.0 | 2.0 | 0.00 | 0.00 | 0.00 | 63 | 1007.6 |
| 20260509203505 | 84 | 5 | 0.0 | 3.0 | 0.00 | 0.00 | 0.00 | 62 | 1007.7 |
| 20260509203403 | 84 | 5 | 0.0 | 3.0 | 0.00 | 0.00 | 0.00 | 62 | 1007.7 |
| 20260509203302 | 84 | 20 | 0.0 | 3.0 | 0.00 | 0.00 | 0.00 | 62 | 1007.7 |
| 20260509203204 | 84 | 34 | 0.0 | 3.0 | 0.00 | 0.00 | 0.00 | 62 | 1007.7 |
| 20260509203103 | 84 | 63 | 1.0 | 3.0 | 0.00 | 0.00 | 0.00 | 61 | 1007.8 |
| 20260509203005 | 84 | 73 | 2.0 | 3.0 | 0.00 | 0.00 | 0.00 | 61 | 1007.8 |
| 20260509202903 | 84 | 61 | 2.0 | 3.0 | 0.00 | 0.00 | 0.00 | 61 | 1007.8 |
| 20260509202803 | 84 | 65 | 1.0 | 3.0 | 0.00 | 0.00 | 0.00 | 61 | 1007.8 |
| 20260509202704 | 84 | 69 | 2.0 | 3.0 | 0.00 | 0.00 | 0.00 | 61 | 1007.8 |
| 20260509202601 | 84 | 70 | 2.0 | 3.0 | 0.00 | 0.00 | 0.00 | 61 | 1007.8 |
| 20260509202506 | 84 | 53 | 2.0 | 3.0 | 0.00 | 0.00 | 0.00 | 61 | 1007.8 |
| 20260509202402 | 84 | 56 | 1.0 | 3.0 | 0.00 | 0.00 | 0.00 | 61 | 1007.7 |
| 20260509202204 | 84 | 45 | 1.0 | 2.0 | 0.00 | 0.00 | 0.00 | 61 | 1007.7 |
| 20260509202104 | 84 | 46 | 1.0 | 2.0 | 0.00 | 0.00 | 0.00 | 61 | 1007.8 |
| 20260509202007 | 85 | 48 | 1.0 | 2.0 | 0.00 | 0.00 | 0.00 | 61 | 1007.8 |
| 20260509201902 | 85 | 57 | 1.0 | 2.0 | 0.00 | 0.00 | 0.00 | 60 | 1007.8 |
| 20260509201804 | 85 | 9 | 1.0 | 2.0 | 0.00 | 0.00 | 0.00 | 60 | 1007.8 |
| 20260509201705 | 85 | 9 | 1.0 | 2.0 | 0.00 | 0.00 | 0.00 | 60 | 1007.8 |
| 20260509201506 | 85 | 5 | 1.0 | 2.0 | 0.00 | 0.00 | 0.00 | 60 | 1007.8 |
| 20260509201402 | 85 | 5 | 1.0 | 2.0 | 0.00 | 0.00 | 0.00 | 60 | 1007.8 |
| 20260509201303 | 85 | 5 | 1.0 | 2.0 | 0.00 | 0.00 | 0.00 | 60 | 1007.8 |
| 20260509201203 | 85 | 355 | 1.0 | 2.0 | 0.00 | 0.00 | 0.00 | 60 | 1007.8 |
| 20260509201104 | 85 | 355 | 0.0 | 2.0 | 0.00 | 0.00 | 0.00 | 60 | 1007.8 |
| 20260509200903 | 85 | 65 | 1.0 | 2.0 | 0.00 | 0.00 | 0.00 | 60 | 1007.8 |
| 20260509200804 | 85 | 65 | 1.0 | 2.0 | 0.00 | 0.00 | 0.00 | 60 | 1007.7 |
| 20260509200703 | 85 | 47 | 0.0 | 1.0 | 0.00 | 0.00 | 0.00 | 59 | 1007.8 |
| 20260509200506 | 85 | 144 | 0.0 | 1.0 | 0.00 | 0.00 | 0.00 | 59 | 1007.8 |
| 20260509200403 | 85 | 144 | 0.0 | 1.0 | 0.00 | 0.00 | 0.00 | 59 | 1007.8 |
| 20260509200301 | 85 | 144 | 0.0 | 1.0 | 0.00 | 0.00 | 0.00 | 59 | 1007.8 |
| 20260509200201 | 85 | 144 | 0.0 | 2.0 | 0.00 | 0.00 | 0.00 | 59 | 1007.8 |
| 20260509200004 | 85 | 144 | 0.0 | 2.0 | 0.00 | 0.00 | 0.00 | 59 | 1007.8 |
| 20260509195859 | 85 | 144 | 0.0 | 3.0 | 0.00 | 0.00 | 0.00 | 58 | 1007.9 |
| 20260509195800 | 85 | 144 | 0.0 | 3.0 | 0.00 | 0.00 | 0.00 | 58 | 1007.9 |
| 20260509195701 | 85 | 144 | 0.0 | 3.0 | 0.00 | 0.00 | 0.00 | 58 | 1007.9 |
| 20260509195504 | 85 | 144 | 0.0 | 3.0 | 0.00 | 0.00 | 0.00 | 58 | 1008.0 |
| 20260509195400 | 85 | 117 | 1.0 | 3.0 | 0.00 | 0.00 | 0.00 | 58 | 1008.0 |
| 20260509195301 | 85 | 141 | 1.0 | 3.0 | 0.00 | 0.00 | 0.00 | 58 | 1007.9 |
| 20260509195203 | 85 | 124 | 1.0 | 3.0 | 0.00 | 0.00 | 0.00 | 58 | 1007.9 |
| 20260509195006 | 85 | 112 | 1.0 | 3.0 | 0.00 | 0.00 | 0.00 | 58 | 1008.0 |
| 20260509194801 | 85 | 77 | 1.0 | 2.0 | 0.00 | 0.00 | 0.00 | 58 | 1008.0 |
| 20260509194702 | 85 | 101 | 1.0 | 2.0 | 0.00 | 0.00 | 0.00 | 58 | 1007.9 |
| 20260509194503 | 86 | 86 | 1.0 | 2.0 | 0.00 | 0.00 | 0.00 | 58 | 1008.0 |
| 20260509194403 | 86 | 90 | 0.0 | 2.0 | 0.00 | 0.00 | 0.00 | 58 | 1008.0 |
| 20260509194305 | 86 | 73 | 0.0 | 2.0 | 0.00 | 0.00 | 0.00 | 58 | 1008.1 |
| 20260509194203 | 86 | 71 | 1.0 | 2.0 | 0.00 | 0.00 | 0.00 | 58 | 1008.1 |
| 20260509194009 | 86 | 75 | 1.0 | 2.0 | 0.00 | 0.00 | 0.00 | 58 | 1008.1 |
| 20260509193600 | 86 | 73 | 0.0 | 3.0 | 0.00 | 0.00 | 0.00 | 58 | 1008.2 |
| 20260509193505 | 86 | 95 | 1.0 | 3.0 | 0.00 | 0.00 | 0.00 | 57 | 1008.2 |
| 20260509193402 | 86 | 88 | 1.0 | 3.0 | 0.00 | 0.00 | 0.00 | 57 | 1008.3 |
| 20260509193303 | 86 | 90 | 1.0 | 3.0 | 0.00 | 0.00 | 0.00 | 57 | 1008.1 |
| 20260509193202 | 86 | 18 | 1.0 | 3.0 | 0.00 | 0.00 | 0.00 | 57 | 1008.2 |
| 20260509193101 | 86 | 82 | 1.0 | 3.0 | 0.00 | 0.00 | 0.00 | 57 | 1008.2 |
| 20260509193006 | 86 | 76 | 1.0 | 3.0 | 0.00 | 0.00 | 0.00 | 58 | 1008.2 |
| 20260509192903 | 86 | 52 | 1.0 | 3.0 | 0.00 | 0.00 | 0.00 | 58 | 1008.2 |
| 20260509192802 | 86 | 54 | 1.0 | 4.0 | 0.00 | 0.00 | 0.00 | 57 | 1008.2 |
| 20260509192702 | 86 | 70 | 1.0 | 4.0 | 0.00 | 0.00 | 0.00 | 57 | 1008.2 |
| 20260509192600 | 86 | 91 | 0.0 | 4.0 | 0.00 | 0.00 | 0.00 | 57 | 1008.3 |
| 20260509192508 | 86 | 97 | 0.0 | 4.0 | 0.00 | 0.00 | 0.00 | 57 | 1008.3 |
| 20260509192305 | 87 | 61 | 2.0 | 4.0 | 0.00 | 0.00 | 0.00 | 57 | 1008.3 |
| 20260509192203 | 87 | 59 | 2.0 | 4.0 | 0.00 | 0.00 | 0.00 | 57 | 1008.2 |
| 20260509192103 | 87 | 73 | 3.0 | 4.0 | 0.00 | 0.00 | 0.00 | 57 | 1008.3 |
| 20260509192009 | 87 | 46 | 2.0 | 4.0 | 0.00 | 0.00 | 0.00 | 56 | 1008.3 |
| 20260509191901 | 87 | 51 | 0.0 | 3.0 | 0.00 | 0.00 | 0.00 | 55 | 1008.4 |
| 20260509191803 | 87 | 107 | 0.0 | 3.0 | 0.00 | 0.00 | 0.00 | 55 | 1008.3 |
| 20260509191701 | 87 | 123 | 1.0 | 3.0 | 0.00 | 0.00 | 0.00 | 55 | 1008.4 |
| 20260509191603 | 87 | 163 | 1.0 | 3.0 | 0.00 | 0.00 | 0.00 | 55 | 1008.3 |
| 20260509191503 | 87 | 153 | 0.0 | 3.0 | 0.00 | 0.00 | 0.00 | 55 | 1008.4 |
| 20260509191402 | 87 | 153 | 0.0 | 3.0 | 0.00 | 0.00 | 0.00 | 55 | 1008.5 |
| 20260509191103 | 87 | 157 | 2.0 | 4.0 | 0.00 | 0.00 | 0.00 | 55 | 1008.4 |
| 20260509191007 | 87 | 115 | 1.0 | 4.0 | 0.00 | 0.00 | 0.00 | 55 | 1008.4 |
| 20260509190801 | 87 | 173 | 1.0 | 4.0 | 0.00 | 0.00 | 0.00 | 55 | 1008.4 |
| 20260509190722 | 87 | 152 | 2.0 | 4.0 | 0.00 | 0.00 | 0.00 | 55 | 1008.4 |
| 20260509190303 | 87 | 178 | 2.0 | 6.0 | 0.00 | 0.00 | 0.00 | 54 | 1008.4 |
| 20260509190204 | 87 | 171 | 3.0 | 6.0 | 0.00 | 0.00 | 0.00 | 55 | 1008.5 |
| 20260509190058 | 87 | 169 | 2.0 | 6.0 | 0.00 | 0.00 | 0.00 | 55 | 1008.5 |
| 20260509190007 | 87 | 173 | 2.0 | 6.0 | 0.00 | 0.00 | 0.00 | 54 | 1008.5 |
| 20260509185904 | 87 | 171 | 2.0 | 6.0 | 0.00 | 0.00 | 0.00 | 54 | 1008.5 |
| 20260509185804 | 87 | 182 | 2.0 | 6.0 | 0.00 | 0.00 | 0.00 | 54 | 1008.5 |
| 20260509185704 | 87 | 161 | 2.0 | 6.0 | 0.00 | 0.00 | 0.00 | 54 | 1008.5 |
| 20260509185605 | 87 | 163 | 3.0 | 6.0 | 0.00 | 0.00 | 0.00 | 54 | 1008.6 |
| 20260509185505 | 87 | 157 | 3.0 | 6.0 | 0.00 | 0.00 | 0.00 | 54 | 1008.5 |
| 20260509185403 | 87 | 184 | 3.0 | 6.0 | 0.00 | 0.00 | 0.00 | 54 | 1008.5 |
| 20260509185306 | 87 | 177 | 3.0 | 6.0 | 0.00 | 0.00 | 0.00 | 54 | 1008.5 |
| 20260509185203 | 87 | 167 | 4.0 | 6.0 | 0.00 | 0.00 | 0.00 | 54 | 1008.5 |
| 20260509185107 | 87 | 184 | 4.0 | 6.0 | 0.00 | 0.00 | 0.00 | 54 | 1008.4 |
| 20260509185007 | 87 | 176 | 3.0 | 5.0 | 0.00 | 0.00 | 0.00 | 54 | 1008.5 |
| 20260509184904 | 87 | 168 | 4.0 | 5.0 | 0.00 | 0.00 | 0.00 | 54 | 1008.5 |
| 20260509184803 | 87 | 188 | 4.0 | 6.0 | 0.00 | 0.00 | 0.00 | 54 | 1008.5 |
| 20260509184604 | 87 | 169 | 3.0 | 5.0 | 0.00 | 0.00 | 0.00 | 54 | 1008.5 |
| 20260509184504 | 87 | 172 | 3.0 | 5.0 | 0.00 | 0.00 | 0.00 | 54 | 1008.5 |
| 20260509184405 | 87 | 163 | 3.0 | 5.0 | 0.00 | 0.00 | 0.00 | 54 | 1008.5 |
| 20260509184303 | 87 | 180 | 3.0 | 5.0 | 0.00 | 0.00 | 0.00 | 54 | 1008.5 |
| 20260509184204 | 87 | 154 | 3.0 | 5.0 | 0.00 | 0.00 | 0.00 | 54 | 1008.6 |
| 20260509184104 | 87 | 175 | 3.0 | 6.0 | 0.00 | 0.00 | 0.00 | 54 | 1008.6 |
| 20260509184007 | 87 | 165 | 3.0 | 5.0 | 0.00 | 0.00 | 0.00 | 54 | 1008.5 |
| 20260509183904 | 87 | 162 | 3.0 | 5.0 | 0.00 | 0.00 | 0.00 | 54 | 1008.6 |
| 20260509183803 | 88 | 165 | 4.0 | 6.0 | 0.00 | 0.00 | 0.00 | 54 | 1008.5 |
| 20260509183705 | 88 | 184 | 3.0 | 5.0 | 0.00 | 0.00 | 0.00 | 54 | 1008.5 |
| 20260509183605 | 88 | 167 | 3.0 | 5.0 | 0.00 | 0.00 | 0.00 | 54 | 1008.6 |
| 20260509183505 | 88 | 165 | 3.0 | 5.0 | 0.00 | 0.00 | 0.00 | 54 | 1008.5 |
| 20260509183404 | 88 | 185 | 3.0 | 5.0 | 0.00 | 0.00 | 0.00 | 54 | 1008.6 |
| 20260509183304 | 88 | 171 | 3.0 | 5.0 | 0.00 | 0.00 | 0.00 | 54 | 1008.6 |
| 20260509183203 | 88 | 142 | 4.0 | 5.0 | 0.00 | 0.00 | 0.00 | 54 | 1008.6 |
| 20260509183105 | 88 | 192 | 4.0 | 6.0 | 0.00 | 0.00 | 0.00 | 54 | 1008.6 |
| 20260509183008 | 88 | 159 | 4.0 | 6.0 | 0.00 | 0.00 | 0.00 | 54 | 1008.6 |
| 20260509182803 | 88 | 175 | 4.0 | 6.0 | 0.00 | 0.00 | 0.00 | 54 | 1008.6 |
| 20260509182704 | 88 | 161 | 4.0 | 6.0 | 0.00 | 0.00 | 0.00 | 54 | 1008.7 |
| 20260509182604 | 88 | 165 | 4.0 | 6.0 | 0.00 | 0.00 | 0.00 | 54 | 1008.6 |
| 20260509182405 | 88 | 180 | 4.0 | 5.0 | 0.00 | 0.00 | 0.00 | 54 | 1008.6 |
| 20260509182306 | 88 | 169 | 4.0 | 5.0 | 0.00 | 0.00 | 0.00 | 54 | 1008.6 |
| 20260509182009 | 88 | 189 | 3.0 | 5.0 | 0.00 | 0.00 | 0.00 | 54 | 1008.5 |
| 20260509181803 | 88 | 168 | 3.0 | 5.0 | 0.00 | 0.00 | 0.00 | 53 | 1008.6 |
| 20260509181704 | 88 | 168 | 3.0 | 5.0 | 0.00 | 0.00 | 0.00 | 53 | 1008.6 |
| 20260509181604 | 88 | 159 | 3.0 | 5.0 | 0.00 | 0.00 | 0.00 | 53 | 1008.6 |
| 20260509181506 | 88 | 182 | 2.0 | 5.0 | 0.00 | 0.00 | 0.00 | 53 | 1008.5 |
| 20260509181406 | 88 | 167 | 2.0 | 7.0 | 0.00 | 0.00 | 0.00 | 53 | 1008.6 |
| 20260509181304 | 88 | 161 | 3.0 | 7.0 | 0.00 | 0.00 | 0.00 | 53 | 1008.6 |
| 20260509181204 | 88 | 157 | 3.0 | 7.0 | 0.00 | 0.00 | 0.00 | 53 | 1008.6 |
| 20260509181103 | 88 | 165 | 3.0 | 7.0 | 0.00 | 0.00 | 0.00 | 53 | 1008.6 |
| 20260509181007 | 88 | 140 | 3.0 | 7.0 | 0.00 | 0.00 | 0.00 | 53 | 1008.6 |
| 20260509180803 | 88 | 155 | 3.0 | 9.0 | 0.00 | 0.00 | 0.00 | 53 | 1008.6 |
| 20260509180703 | 88 | 167 | 3.0 | 9.0 | 0.00 | 0.00 | 0.00 | 53 | 1008.6 |
| 20260509180603 | 88 | 148 | 3.0 | 9.0 | 0.00 | 0.00 | 0.00 | 53 | 1008.7 |
| 20260509180506 | 88 | 156 | 3.0 | 9.0 | 0.00 | 0.00 | 0.00 | 53 | 1008.8 |
| 20260509180404 | 88 | 173 | 4.0 | 9.0 | 0.00 | 0.00 | 0.00 | 53 | 1008.6 |
| 20260509180304 | 88 | 163 | 3.0 | 9.0 | 0.00 | 0.00 | 0.00 | 53 | 1008.7 |
| 20260509180204 | 88 | 165 | 3.0 | 9.0 | 0.00 | 0.00 | 0.00 | 53 | 1008.8 |
| 20260509180104 | 88 | 159 | 4.0 | 9.0 | 0.00 | 0.00 | 0.00 | 53 | 1008.6 |
| 20260509175903 | 88 | 142 | 4.0 | 7.0 | 0.00 | 0.00 | 0.00 | 53 | 1008.7 |
| 20260509175804 | 88 | 167 | 4.0 | 7.0 | 0.00 | 0.00 | 0.00 | 53 | 1008.7 |
| 20260509175703 | 88 | 174 | 4.0 | 7.0 | 0.00 | 0.00 | 0.00 | 52 | 1008.6 |
| 20260509175605 | 88 | 150 | 4.0 | 8.0 | 0.00 | 0.00 | 0.00 | 52 | 1008.7 |
| 20260509175505 | 88 | 182 | 3.0 | 8.0 | 0.00 | 0.00 | 0.00 | 52 | 1008.6 |
| 20260509175204 | 89 | 171 | 5.0 | 8.0 | 0.00 | 0.00 | 0.00 | 52 | 1008.6 |
| 20260509175103 | 89 | 159 | 4.0 | 8.0 | 0.00 | 0.00 | 0.00 | 52 | 1008.7 |
| 20260509175006 | 89 | 140 | 3.0 | 8.0 | 0.00 | 0.00 | 0.00 | 52 | 1008.6 |
| 20260509174903 | 89 | 171 | 3.0 | 8.0 | 0.00 | 0.00 | 0.00 | 52 | 1008.7 |
| 20260509174805 | 89 | 133 | 4.0 | 8.0 | 0.00 | 0.00 | 0.00 | 52 | 1008.6 |
| 20260509174704 | 89 | 167 | 5.0 | 8.0 | 0.00 | 0.00 | 0.00 | 52 | 1008.7 |
| 20260509174505 | 89 | 170 | 3.0 | 8.0 | 0.00 | 0.00 | 0.00 | 52 | 1008.6 |
| 20260509174404 | 89 | 158 | 4.0 | 8.0 | 0.00 | 0.00 | 0.00 | 52 | 1008.7 |
| 20260509174103 | 89 | 144 | 4.0 | 8.0 | 0.00 | 0.00 | 0.00 | 52 | 1008.7 |
| 20260509174006 | 89 | 151 | 4.0 | 8.0 | 0.00 | 0.00 | 0.00 | 52 | 1008.8 |
| 20260509173804 | 89 | 175 | 4.0 | 9.0 | 0.00 | 0.00 | 0.00 | 52 | 1008.8 |
| 20260509173704 | 89 | 169 | 3.0 | 9.0 | 0.00 | 0.00 | 0.00 | 52 | 1008.8 |
| 20260509173604 | 89 | 166 | 3.0 | 9.0 | 0.00 | 0.00 | 0.00 | 52 | 1008.8 |
| 20260509173506 | 89 | 134 | 4.0 | 9.0 | 0.00 | 0.00 | 0.00 | 52 | 1008.7 |
| 20260509173404 | 89 | 144 | 4.0 | 9.0 | 0.00 | 0.00 | 0.00 | 52 | 1008.8 |
| 20260509173304 | 89 | 159 | 4.0 | 9.0 | 0.00 | 0.00 | 0.00 | 52 | 1008.8 |
| 20260509173205 | 89 | 150 | 5.0 | 9.0 | 0.00 | 0.00 | 0.00 | 51 | 1008.8 |
| 20260509172705 | 89 | 157 | 2.0 | 5.0 | 0.00 | 0.00 | 0.00 | 52 | 1008.8 |
| 20260509172604 | 89 | 148 | 2.0 | 6.0 | 0.00 | 0.00 | 0.00 | 52 | 1008.6 |
| 20260509172508 | 89 | 163 | 2.0 | 6.0 | 0.00 | 0.00 | 0.00 | 52 | 1008.7 |
| 20260509172404 | 89 | 130 | 3.0 | 6.0 | 0.00 | 0.00 | 0.00 | 52 | 1008.7 |
| 20260509172306 | 89 | 146 | 3.0 | 6.0 | 0.00 | 0.00 | 0.00 | 52 | 1008.6 |
| 20260509172204 | 89 | 187 | 3.0 | 6.0 | 0.00 | 0.00 | 0.00 | 52 | 1008.7 |
| 20260509172103 | 89 | 146 | 3.0 | 6.0 | 0.00 | 0.00 | 0.00 | 51 | 1008.7 |
| 20260509172011 | 89 | 158 | 3.0 | 4.0 | 0.00 | 0.00 | 0.00 | 52 | 1008.6 |
| 20260509171903 | 89 | 152 | 2.0 | 4.0 | 0.00 | 0.00 | 0.00 | 52 | 1008.7 |
| 20260509171804 | 89 | 121 | 2.0 | 6.0 | 0.00 | 0.00 | 0.00 | 52 | 1008.7 |
| 20260509171704 | 89 | 150 | 2.0 | 6.0 | 0.00 | 0.00 | 0.00 | 52 | 1008.6 |
| 20260509171603 | 89 | 186 | 2.0 | 6.0 | 0.00 | 0.00 | 0.00 | 52 | 1008.6 |
| 20260509171505 | 89 | 145 | 2.0 | 6.0 | 0.00 | 0.00 | 0.00 | 52 | 1008.7 |
| 20260509171403 | 89 | 170 | 3.0 | 6.0 | 0.00 | 0.00 | 0.00 | 51 | 1008.6 |
| 20260509171304 | 89 | 144 | 3.0 | 6.0 | 0.00 | 0.00 | 0.00 | 51 | 1008.8 |
| 20260509171203 | 89 | 140 | 3.0 | 6.0 | 0.00 | 0.00 | 0.00 | 51 | 1008.7 |
| 20260509171104 | 89 | 144 | 3.0 | 6.0 | 0.00 | 0.00 | 0.00 | 51 | 1008.7 |
| 20260509171010 | 89 | 135 | 2.0 | 5.0 | 0.00 | 0.00 | 0.00 | 51 | 1008.7 |
| 20260509170903 | 89 | 167 | 3.0 | 5.0 | 0.00 | 0.00 | 0.00 | 51 | 1008.7 |
| 20260509170803 | 89 | 144 | 3.0 | 5.0 | 0.00 | 0.00 | 0.00 | 51 | 1008.7 |
| 20260509170705 | 89 | 158 | 3.0 | 5.0 | 0.00 | 0.00 | 0.00 | 51 | 1008.7 |
| 20260509170603 | 89 | 155 | 3.0 | 5.0 | 0.00 | 0.00 | 0.00 | 51 | 1008.7 |
| 20260509170505 | 89 | 171 | 3.0 | 6.0 | 0.00 | 0.00 | 0.00 | 51 | 1008.7 |
| 20260509170405 | 89 | 149 | 3.0 | 5.0 | 0.00 | 0.00 | 0.00 | 51 | 1008.6 |
| 20260509170304 | 89 | 164 | 3.0 | 6.0 | 0.00 | 0.00 | 0.00 | 51 | 1008.6 |
| 20260509170203 | 89 | 167 | 3.0 | 4.0 | 0.00 | 0.00 | 0.00 | 51 | 1008.7 |
| 20260509170104 | 89 | 137 | 3.0 | 5.0 | 0.00 | 0.00 | 0.00 | 51 | 1008.6 |
| 20260509170007 | 89 | 145 | 3.0 | 5.0 | 0.00 | 0.00 | 0.00 | 51 | 1008.6 |
| 20260509165901 | 90 | 159 | 2.0 | 8.0 | 0.00 | 0.00 | 0.00 | 51 | 1008.6 |
| 20260509165803 | 90 | 173 | 2.0 | 8.0 | 0.00 | 0.00 | 0.00 | 51 | 1008.7 |
| 20260509165703 | 90 | 146 | 3.0 | 8.0 | 0.00 | 0.00 | 0.00 | 51 | 1008.6 |
| 20260509165603 | 90 | 159 | 2.0 | 8.0 | 0.00 | 0.00 | 0.00 | 51 | 1008.6 |
| 20260509165505 | 90 | 160 | 3.0 | 8.0 | 0.00 | 0.00 | 0.00 | 51 | 1008.7 |
| 20260509165407 | 90 | 156 | 2.0 | 8.0 | 0.00 | 0.00 | 0.00 | 51 | 1008.6 |
| 20260509165306 | 90 | 153 | 2.0 | 8.0 | 0.00 | 0.00 | 0.00 | 51 | 1008.6 |
| 20260509165105 | 90 | 107 | 3.0 | 8.0 | 0.00 | 0.00 | 0.00 | 51 | 1008.6 |
| 20260509165010 | 90 | 138 | 3.0 | 8.0 | 0.00 | 0.00 | 0.00 | 51 | 1008.6 |
| 20260509164906 | 90 | 137 | 2.0 | 8.0 | 0.00 | 0.00 | 0.00 | 51 | 1008.6 |
| 20260509164803 | 90 | 133 | 2.0 | 8.0 | 0.00 | 0.00 | 0.00 | 51 | 1008.6 |
| 20260509164703 | 90 | 141 | 2.0 | 8.0 | 0.00 | 0.00 | 0.00 | 51 | 1008.7 |
| 20260509164604 | 90 | 179 | 2.0 | 8.0 | 0.00 | 0.00 | 0.00 | 51 | 1008.6 |
| 20260509164507 | 90 | 134 | 4.0 | 8.0 | 0.00 | 0.00 | 0.00 | 51 | 1008.7 |
| 20260509164403 | 90 | 130 | 4.0 | 8.0 | 0.00 | 0.00 | 0.00 | 50 | 1008.7 |
| 20260509164305 | 90 | 132 | 4.0 | 8.0 | 0.00 | 0.00 | 0.00 | 51 | 1008.6 |
| 20260509164204 | 90 | 136 | 3.0 | 8.0 | 0.00 | 0.00 | 0.00 | 50 | 1008.7 |
| 20260509164105 | 90 | 150 | 4.0 | 8.0 | 0.00 | 0.00 | 0.00 | 50 | 1008.6 |
| 20260509164008 | 90 | 148 | 3.0 | 8.0 | 0.00 | 0.00 | 0.00 | 50 | 1008.7 |
| 20260509163904 | 90 | 115 | 4.0 | 8.0 | 0.00 | 0.00 | 0.00 | 50 | 1008.6 |
| 20260509163804 | 90 | 132 | 3.0 | 8.0 | 0.00 | 0.00 | 0.00 | 50 | 1008.6 |
| 20260509163508 | 90 | 161 | 5.0 | 8.0 | 0.00 | 0.00 | 0.00 | 50 | 1008.6 |
| 20260509163401 | 90 | 124 | 5.0 | 8.0 | 0.00 | 0.00 | 0.00 | 50 | 1008.6 |
| 20260509163304 | 90 | 144 | 5.0 | 8.0 | 0.00 | 0.00 | 0.00 | 50 | 1008.6 |
| 20260509163204 | 90 | 155 | 5.0 | 8.0 | 0.00 | 0.00 | 0.00 | 50 | 1008.6 |
| 20260509163007 | 90 | 132 | 5.0 | 8.0 | 0.00 | 0.00 | 0.00 | 50 | 1008.6 |
| 20260509162903 | 90 | 130 | 4.0 | 7.0 | 0.00 | 0.00 | 0.00 | 50 | 1008.7 |
| 20260509162803 | 90 | 161 | 4.0 | 7.0 | 0.00 | 0.00 | 0.00 | 50 | 1008.7 |
| 20260509162604 | 90 | 128 | 3.0 | 7.0 | 0.00 | 0.00 | 0.00 | 50 | 1008.6 |
| 20260509162505 | 90 | 161 | 4.0 | 7.0 | 0.00 | 0.00 | 0.00 | 50 | 1008.6 |
| 20260509162307 | 90 | 142 | 3.0 | 7.0 | 0.00 | 0.00 | 0.00 | 50 | 1008.7 |
| 20260509162204 | 90 | 178 | 3.0 | 7.0 | 0.00 | 0.00 | 0.00 | 50 | 1008.6 |
| 20260509161904 | 90 | 126 | 3.0 | 5.0 | 0.00 | 0.00 | 0.00 | 50 | 1008.7 |
| 20260509161804 | 90 | 140 | 3.0 | 5.0 | 0.00 | 0.00 | 0.00 | 50 | 1008.7 |
| 20260509161704 | 90 | 162 | 3.0 | 7.0 | 0.00 | 0.00 | 0.00 | 50 | 1008.7 |
| 20260509161603 | 90 | 170 | 3.0 | 7.0 | 0.00 | 0.00 | 0.00 | 50 | 1008.6 |
| 20260509161506 | 90 | 128 | 3.0 | 7.0 | 0.00 | 0.00 | 0.00 | 50 | 1008.7 |
| 20260509161403 | 90 | 159 | 2.0 | 7.0 | 0.00 | 0.00 | 0.00 | 50 | 1008.6 |
| 20260509161303 | 90 | 138 | 3.0 | 7.0 | 0.00 | 0.00 | 0.00 | 50 | 1008.6 |
| 20260509161203 | 90 | 132 | 4.0 | 7.0 | 0.00 | 0.00 | 0.00 | 50 | 1008.6 |
| 20260509161103 | 90 | 123 | 4.0 | 7.0 | 0.00 | 0.00 | 0.00 | 50 | 1008.6 |
| 20260509161007 | 90 | 119 | 3.0 | 7.0 | 0.00 | 0.00 | 0.00 | 50 | 1008.6 |
| 20260509160904 | 90 | 144 | 3.0 | 7.0 | 0.00 | 0.00 | 0.00 | 50 | 1008.6 |
| 20260509160804 | 90 | 160 | 4.0 | 7.0 | 0.00 | 0.00 | 0.00 | 50 | 1008.5 |
| 20260509160703 | 90 | 121 | 4.0 | 6.0 | 0.00 | 0.00 | 0.00 | 50 | 1008.6 |
| 20260509160605 | 90 | 156 | 4.0 | 6.0 | 0.00 | 0.00 | 0.00 | 50 | 1008.6 |
| 20260509160505 | 91 | 111 | 3.0 | 6.0 | 0.00 | 0.00 | 0.00 | 50 | 1008.5 |
| 20260509160304 | 91 | 129 | 3.0 | 6.0 | 0.00 | 0.00 | 0.00 | 50 | 1008.5 |
| 20260509160204 | 90 | 145 | 4.0 | 6.0 | 0.00 | 0.00 | 0.00 | 50 | 1008.5 |
| 20260509160104 | 91 | 133 | 4.0 | 6.0 | 0.00 | 0.00 | 0.00 | 50 | 1008.5 |
| 20260509160007 | 91 | 135 | 4.0 | 5.0 | 0.00 | 0.00 | 0.00 | 50 | 1008.5 |
| 20260509155903 | 91 | 134 | 3.0 | 5.0 | 0.00 | 0.00 | 0.00 | 50 | 1008.5 |
| 20260509155803 | 91 | 144 | 3.0 | 5.0 | 0.00 | 0.00 | 0.00 | 50 | 1008.5 |
| 20260509155505 | 91 | 147 | 2.0 | 4.0 | 0.00 | 0.00 | 0.00 | 50 | 1008.5 |
| 20260509155403 | 91 | 159 | 2.0 | 4.0 | 0.00 | 0.00 | 0.00 | 50 | 1008.5 |
| 20260509155306 | 91 | 131 | 2.0 | 5.0 | 0.00 | 0.00 | 0.00 | 50 | 1008.5 |
| 20260509155203 | 91 | 152 | 2.0 | 4.0 | 0.00 | 0.00 | 0.00 | 50 | 1008.5 |
| 20260509155107 | 91 | 142 | 2.0 | 4.0 | 0.00 | 0.00 | 0.00 | 50 | 1008.4 |
| 20260509155006 | 91 | 132 | 2.0 | 4.0 | 0.00 | 0.00 | 0.00 | 50 | 1008.4 |
| 20260509154903 | 91 | 132 | 1.0 | 4.0 | 0.00 | 0.00 | 0.00 | 51 | 1008.5 |
| 20260509154703 | 91 | 142 | 1.0 | 4.0 | 0.00 | 0.00 | 0.00 | 51 | 1008.5 |
| 20260509154603 | 91 | 173 | 1.0 | 4.0 | 0.00 | 0.00 | 0.00 | 50 | 1008.4 |
| 20260509154506 | 91 | 132 | 2.0 | 4.0 | 0.00 | 0.00 | 0.00 | 50 | 1008.5 |
| 20260509154407 | 91 | 160 | 2.0 | 4.0 | 0.00 | 0.00 | 0.00 | 50 | 1008.4 |
| 20260509154304 | 91 | 126 | 2.0 | 5.0 | 0.00 | 0.00 | 0.00 | 50 | 1008.5 |
| 20260509154104 | 91 | 133 | 3.0 | 5.0 | 0.00 | 0.00 | 0.00 | 50 | 1008.4 |
| 20260509154008 | 91 | 119 | 3.0 | 5.0 | 0.00 | 0.00 | 0.00 | 50 | 1008.4 |
| 20260509153905 | 91 | 162 | 3.0 | 5.0 | 0.00 | 0.00 | 0.00 | 50 | 1008.4 |
| 20260509153803 | 91 | 121 | 3.0 | 5.0 | 0.00 | 0.00 | 0.00 | 50 | 1008.4 |
| 20260509153704 | 91 | 134 | 3.0 | 5.0 | 0.00 | 0.00 | 0.00 | 50 | 1008.4 |
| 20260509153603 | 91 | 148 | 3.0 | 5.0 | 0.00 | 0.00 | 0.00 | 50 | 1008.4 |
| 20260509153507 | 91 | 130 | 2.0 | 5.0 | 0.00 | 0.00 | 0.00 | 50 | 1008.4 |
| 20260509153403 | 91 | 144 | 2.0 | 3.0 | 0.00 | 0.00 | 0.00 | 50 | 1008.5 |
| 20260509153304 | 91 | 139 | 2.0 | 3.0 | 0.00 | 0.00 | 0.00 | 50 | 1008.4 |
| 20260509153204 | 91 | 137 | 2.0 | 3.0 | 0.00 | 0.00 | 0.00 | 50 | 1008.5 |
| 20260509153104 | 91 | 124 | 2.0 | 5.0 | 0.00 | 0.00 | 0.00 | 50 | 1008.4 |
| 20260509153007 | 91 | 135 | 2.0 | 5.0 | 0.00 | 0.00 | 0.00 | 50 | 1008.4 |
| 20260509152905 | 91 | 136 | 2.0 | 5.0 | 0.00 | 0.00 | 0.00 | 50 | 1008.4 |
| 20260509152803 | 91 | 128 | 2.0 | 5.0 | 0.00 | 0.00 | 0.00 | 50 | 1008.3 |
| 20260509152704 | 91 | 136 | 2.0 | 5.0 | 0.00 | 0.00 | 0.00 | 50 | 1008.3 |
| 20260509152605 | 91 | 142 | 2.0 | 5.0 | 0.00 | 0.00 | 0.00 | 50 | 1008.3 |
| 20260509152507 | 91 | 130 | 3.0 | 5.0 | 0.00 | 0.00 | 0.00 | 50 | 1008.3 |
| 20260509152403 | 91 | 142 | 2.0 | 5.0 | 0.00 | 0.00 | 0.00 | 50 | 1008.3 |
| 20260509152305 | 91 | 134 | 2.0 | 4.0 | 0.00 | 0.00 | 0.00 | 50 | 1008.4 |
| 20260509152203 | 91 | 144 | 2.0 | 4.0 | 0.00 | 0.00 | 0.00 | 50 | 1008.3 |
| 20260509152104 | 91 | 131 | 3.0 | 4.0 | 0.00 | 0.00 | 0.00 | 50 | 1008.3 |
| 20260509151903 | 91 | 128 | 2.0 | 5.0 | 0.00 | 0.00 | 0.00 | 50 | 1008.2 |
| 20260509151803 | 91 | 117 | 2.0 | 5.0 | 0.00 | 0.00 | 0.00 | 50 | 1008.3 |
| 20260509151704 | 91 | 135 | 2.0 | 5.0 | 0.00 | 0.00 | 0.00 | 50 | 1008.3 |
| 20260509151603 | 91 | 140 | 3.0 | 5.0 | 0.00 | 0.00 | 0.00 | 50 | 1008.3 |
| 20260509151505 | 91 | 136 | 3.0 | 5.0 | 0.00 | 0.00 | 0.00 | 50 | 1008.3 |
| 20260509151404 | 91 | 126 | 3.0 | 5.0 | 0.00 | 0.00 | 0.00 | 50 | 1008.2 |
| 20260509151306 | 91 | 138 | 3.0 | 5.0 | 0.00 | 0.00 | 0.00 | 50 | 1008.3 |
| 20260509151203 | 91 | 132 | 3.0 | 5.0 | 0.00 | 0.00 | 0.00 | 50 | 1008.2 |
| 20260509151104 | 91 | 126 | 3.0 | 5.0 | 0.00 | 0.00 | 0.00 | 50 | 1008.3 |
| 20260509151007 | 91 | 121 | 3.0 | 6.0 | 0.00 | 0.00 | 0.00 | 50 | 1008.2 |
| 20260509150903 | 91 | 132 | 3.0 | 6.0 | 0.00 | 0.00 | 0.00 | 50 | 1008.2 |
| 20260509150803 | 91 | 136 | 3.0 | 6.0 | 0.00 | 0.00 | 0.00 | 50 | 1008.2 |
| 20260509150703 | 91 | 132 | 4.0 | 6.0 | 0.00 | 0.00 | 0.00 | 50 | 1008.2 |
| 20260509150505 | 91 | 131 | 4.0 | 5.0 | 0.00 | 0.00 | 0.00 | 50 | 1008.1 |
| 20260509150404 | 91 | 155 | 3.0 | 6.0 | 0.00 | 0.00 | 0.00 | 50 | 1008.1 |
| 20260509150304 | 91 | 134 | 3.0 | 6.0 | 0.00 | 0.00 | 0.00 | 50 | 1008.1 |
| 20260509150104 | 91 | 159 | 3.0 | 5.0 | 0.00 | 0.00 | 0.00 | 50 | 1008.1 |
| 20260509150009 | 91 | 118 | 3.0 | 4.0 | 0.00 | 0.00 | 0.00 | 51 | 1008.1 |
| 20260509145905 | 91 | 110 | 2.0 | 4.0 | 0.00 | 0.00 | 0.00 | 50 | 1008.1 |
| 20260509145804 | 91 | 141 | 2.0 | 4.0 | 0.00 | 0.00 | 0.00 | 51 | 1008.0 |
| 20260509145605 | 91 | 148 | 2.0 | 4.0 | 0.00 | 0.00 | 0.00 | 51 | 1008.0 |
| 20260509145506 | 91 | 136 | 2.0 | 6.0 | 0.00 | 0.00 | 0.00 | 51 | 1008.0 |
| 20260509145404 | 91 | 170 | 2.0 | 6.0 | 0.00 | 0.00 | 0.00 | 51 | 1008.0 |
| 20260509145306 | 91 | 117 | 2.0 | 6.0 | 0.00 | 0.00 | 0.00 | 50 | 1008.0 |
| 20260509145203 | 91 | 111 | 2.0 | 6.0 | 0.00 | 0.00 | 0.00 | 51 | 1008.0 |
| 20260509145005 | 91 | 126 | 3.0 | 6.0 | 0.00 | 0.00 | 0.00 | 51 | 1007.9 |
| 20260509144903 | 91 | 140 | 3.0 | 6.0 | 0.00 | 0.00 | 0.00 | 51 | 1007.9 |
| 20260509144803 | 91 | 100 | 3.0 | 6.0 | 0.00 | 0.00 | 0.00 | 51 | 1007.9 |
| 20260509144604 | 92 | 103 | 3.0 | 6.0 | 0.00 | 0.00 | 0.00 | 51 | 1007.8 |
| 20260509144505 | 92 | 104 | 3.0 | 4.0 | 0.00 | 0.00 | 0.00 | 51 | 1007.8 |
| 20260509144303 | 92 | 82 | 2.0 | 4.0 | 0.00 | 0.00 | 0.00 | 51 | 1007.8 |
| 20260509144203 | 92 | 119 | 2.0 | 4.0 | 0.00 | 0.00 | 0.00 | 51 | 1007.8 |
| 20260509143903 | 92 | 96 | 2.0 | 6.0 | 0.00 | 0.00 | 0.00 | 51 | 1007.7 |
| 20260509143703 | 92 | 95 | 2.0 | 6.0 | 0.00 | 0.00 | 0.00 | 50 | 1007.8 |
| 20260509143505 | 92 | 101 | 3.0 | 6.0 | 0.00 | 0.00 | 0.00 | 50 | 1007.8 |
| 20260509143402 | 92 | 96 | 3.0 | 6.0 | 0.00 | 0.00 | 0.00 | 50 | 1007.7 |
| 20260509143304 | 92 | 110 | 3.0 | 6.0 | 0.00 | 0.00 | 0.00 | 49 | 1007.7 |
| 20260509143103 | 93 | 107 | 1.0 | 3.0 | 0.00 | 0.00 | 0.00 | 47 | 1007.7 |
| 20260509143007 | 93 | 61 | 0.0 | 2.0 | 0.00 | 0.00 | 0.00 | 47 | 1007.7 |
| 20260509142703 | 93 | 346 | 0.0 | 1.0 | 0.00 | 0.00 | 0.00 | 47 | 1007.6 |
| 20260509142603 | 93 | 346 | 0.0 | 1.0 | 0.00 | 0.00 | 0.00 | 47 | 1007.6 |
| 20260509142403 | 93 | 346 | 0.0 | 0.0 | 0.00 | 0.00 | 0.00 | 47 | 1007.6 |
| 20260509142306 | 93 | 346 | 0.0 | 0.0 | 0.00 | 0.00 | 0.00 | 47 | 1007.6 |
| 20260509142203 | 93 | 346 | 0.0 | 0.0 | 0.00 | 0.00 | 0.00 | 47 | 1007.5 |
| 20260509142104 | 93 | 346 | 0.0 | 0.0 | 0.00 | 0.00 | 0.00 | 47 | 1007.6 |
| 20260509142006 | 93 | 346 | 0.0 | 0.0 | 0.00 | 0.00 | 0.00 | 47 | 1007.6 |
| 20260509141906 | 93 | 346 | 0.0 | 0.0 | 0.00 | 0.00 | 0.00 | 47 | 1007.6 |
| 20260509141805 | 93 | 346 | 0.0 | 0.0 | 0.00 | 0.00 | 0.00 | 47 | 1007.5 |
| 20260509141702 | 93 | 346 | 0.0 | 0.0 | 0.00 | 0.00 | 0.00 | 47 | 1007.5 |
| 20260509141606 | 93 | 346 | 0.0 | 0.0 | 0.00 | 0.00 | 0.00 | 47 | 1007.5 |
| 20260509141405 | 93 | 346 | 0.0 | 0.0 | 0.00 | 0.00 | 0.00 | 47 | 1007.5 |
| 20260509141303 | 93 | 346 | 0.0 | 0.0 | 0.00 | 0.00 | 0.00 | 47 | 1007.5 |
| 20260509141204 | 93 | 346 | 0.0 | 0.0 | 0.00 | 0.00 | 0.00 | 47 | 1007.5 |
| 20260509141006 | 93 | 346 | 0.0 | 0.0 | 0.00 | 0.00 | 0.00 | 47 | 1007.4 |
| 20260509140903 | 93 | 346 | 0.0 | 0.0 | 0.00 | 0.00 | 0.00 | 47 | 1007.5 |
| 20260509140703 | 93 | 346 | 0.0 | 0.0 | 0.00 | 0.00 | 0.00 | 47 | 1007.3 |
| 20260509140603 | 93 | 346 | 0.0 | 0.0 | 0.00 | 0.00 | 0.00 | 47 | 1007.4 |
| 20260509140505 | 93 | 346 | 0.0 | 0.0 | 0.00 | 0.00 | 0.00 | 47 | 1007.4 |
| 20260509140403 | 93 | 346 | 0.0 | 0.0 | 0.00 | 0.00 | 0.00 | 47 | 1007.3 |
| 20260509140305 | 93 | 346 | 0.0 | 2.0 | 0.00 | 0.00 | 0.00 | 47 | 1007.4 |
| 20260509140206 | 93 | 346 | 0.0 | 2.0 | 0.00 | 0.00 | 0.00 | 47 | 1007.4 |
| 20260509140103 | 93 | 346 | 0.0 | 2.0 | 0.00 | 0.00 | 0.00 | 47 | 1007.3 |
| 20260509135903 | 93 | 346 | 0.0 | 2.0 | 0.00 | 0.00 | 0.00 | 47 | 1007.3 |
| 20260509135803 | 93 | 346 | 0.0 | 2.0 | 0.00 | 0.00 | 0.00 | 47 | 1007.3 |
| 20260509135703 | 93 | 346 | 0.0 | 2.0 | 0.00 | 0.00 | 0.00 | 47 | 1007.3 |
| 20260509135505 | 93 | 337 | 0.0 | 3.0 | 0.00 | 0.00 | 0.00 | 47 | 1007.3 |
| 20260509135404 | 93 | 336 | 0.0 | 3.0 | 0.00 | 0.00 | 0.00 | 47 | 1007.3 |
| 20260509135306 | 93 | 348 | 0.0 | 3.0 | 0.00 | 0.00 | 0.00 | 47 | 1007.3 |
| 20260509135209 | 93 | 347 | 0.0 | 3.0 | 0.00 | 0.00 | 0.00 | 47 | 1007.3 |
| 20260509135008 | 93 | 348 | 1.0 | 3.0 | 0.00 | 0.00 | 0.00 | 47 | 1007.3 |
| 20260509134905 | 93 | 348 | 1.0 | 3.0 | 0.00 | 0.00 | 0.00 | 47 | 1007.3 |
| 20260509134705 | 93 | 355 | 2.0 | 3.0 | 0.00 | 0.00 | 0.00 | 47 | 1007.3 |
| 20260509134603 | 93 | 350 | 1.0 | 2.0 | 0.00 | 0.00 | 0.00 | 47 | 1007.3 |
| 20260509134506 | 93 | 355 | 1.0 | 2.0 | 0.00 | 0.00 | 0.00 | 47 | 1007.2 |
| 20260509134405 | 93 | 355 | 1.0 | 2.0 | 0.00 | 0.00 | 0.00 | 47 | 1007.2 |
| 20260509134303 | 93 | 355 | 1.0 | 2.0 | 0.00 | 0.00 | 0.00 | 48 | 1007.3 |
| 20260509134203 | 93 | 355 | 0.0 | 1.0 | 0.00 | 0.00 | 0.00 | 48 | 1007.2 |
| 20260509134103 | 93 | 355 | 0.0 | 1.0 | 0.00 | 0.00 | 0.00 | 48 | 1007.2 |
| 20260509133805 | 93 | 355 | 1.0 | 2.0 | 0.00 | 0.00 | 0.00 | 48 | 1007.1 |
| 20260509133704 | 94 | 355 | 0.0 | 2.0 | 0.00 | 0.00 | 0.00 | 48 | 1007.1 |
| 20260509133604 | 94 | 355 | 0.0 | 2.0 | 0.00 | 0.00 | 0.00 | 48 | 1007.1 |
| 20260509133508 | 94 | 355 | 1.0 | 2.0 | 0.00 | 0.00 | 0.00 | 48 | 1007.1 |
| 20260509133404 | 94 | 360 | 1.0 | 2.0 | 0.00 | 0.00 | 0.00 | 47 | 1007.1 |
| 20260509133303 | 94 | 329 | 1.0 | 3.0 | 0.00 | 0.00 | 0.00 | 47 | 1007.1 |
| 20260509133104 | 94 | 338 | 1.0 | 3.0 | 0.00 | 0.00 | 0.00 | 47 | 1007.1 |
| 20260509133009 | 94 | 18 | 1.0 | 3.0 | 0.00 | 0.00 | 0.00 | 47 | 1007.1 |
| 20260509132903 | 94 | 341 | 1.0 | 3.0 | 0.00 | 0.00 | 0.00 | 47 | 1007.1 |
| 20260509132803 | 94 | 346 | 1.0 | 3.0 | 0.00 | 0.00 | 0.00 | 47 | 1007.0 |
| 20260509132703 | 94 | 5 | 1.0 | 3.0 | 0.00 | 0.00 | 0.00 | 47 | 1007.1 |
| 20260509132604 | 94 | 348 | 2.0 | 3.0 | 0.00 | 0.00 | 0.00 | 47 | 1007.2 |
| 20260509132403 | 94 | 355 | 2.0 | 3.0 | 0.00 | 0.00 | 0.00 | 47 | 1007.1 |
| 20260509132306 | 94 | 360 | 2.0 | 3.0 | 0.00 | 0.00 | 0.00 | 47 | 1007.1 |
| 20260509132207 | 94 | 355 | 2.0 | 3.0 | 0.00 | 0.00 | 0.00 | 47 | 1007.1 |
| 20260509132103 | 94 | 326 | 2.0 | 3.0 | 0.00 | 0.00 | 0.00 | 46 | 1007.1 |
| 20260509132006 | 94 | 344 | 2.0 | 3.0 | 0.00 | 0.00 | 0.00 | 47 | 1007.0 |
| 20260509131903 | 94 | 335 | 2.0 | 3.0 | 0.00 | 0.00 | 0.00 | 46 | 1007.1 |
| 20260509131802 | 94 | 332 | 2.0 | 3.0 | 0.00 | 0.00 | 0.00 | 46 | 1007.1 |
| 20260509131705 | 95 | 332 | 2.0 | 4.0 | 0.00 | 0.00 | 0.00 | 46 | 1007.1 |
| 20260509131402 | 95 | 332 | 2.0 | 4.0 | 0.00 | 0.00 | 0.00 | 46 | 1007.1 |
| 20260509131203 | 95 | 344 | 2.0 | 4.0 | 0.00 | 0.00 | 0.00 | 46 | 1007.1 |
| 20260509131104 | 95 | 340 | 2.0 | 4.0 | 0.00 | 0.00 | 0.00 | 45 | 1007.1 |
| 20260509131007 | 95 | 328 | 2.0 | 4.0 | 0.00 | 0.00 | 0.00 | 45 | 1007.1 |
| 20260509130903 | 95 | 336 | 2.0 | 4.0 | 0.00 | 0.00 | 0.00 | 46 | 1007.1 |
| 20260509130704 | 95 | 332 | 1.0 | 3.0 | 0.00 | 0.00 | 0.00 | 46 | 1007.1 |
| 20260509130505 | 95 | 343 | 2.0 | 3.0 | 0.00 | 0.00 | 0.00 | 45 | 1007.1 |
| 20260509130403 | 95 | 341 | 2.0 | 3.0 | 0.00 | 0.00 | 0.00 | 45 | 1007.1 |
| 20260509130203 | 95 | 330 | 2.0 | 3.0 | 0.00 | 0.00 | 0.00 | 45 | 1007.1 |
| 20260509130106 | 95 | 334 | 2.0 | 2.0 | 0.00 | 0.00 | 0.00 | 45 | 1007.1 |
| 20260509130009 | 95 | 326 | 1.0 | 2.0 | 0.00 | 0.00 | 0.00 | 45 | 1007.2 |
| 20260509125903 | 96 | 342 | 1.0 | 2.0 | 0.00 | 0.00 | 0.00 | 45 | 1007.2 |
| 20260509125804 | 96 | 323 | 1.0 | 2.0 | 0.00 | 0.00 | 0.00 | 45 | 1007.1 |
| 20260509125703 | 96 | 340 | 1.0 | 2.0 | 0.00 | 0.00 | 0.00 | 45 | 1007.1 |
| 20260509125604 | 96 | 345 | 1.0 | 2.0 | 0.00 | 0.00 | 0.00 | 44 | 1007.1 |
| 20260509125506 | 96 | 335 | 1.0 | 2.0 | 0.00 | 0.00 | 0.00 | 45 | 1007.2 |
| 20260509125403 | 96 | 335 | 1.0 | 2.0 | 0.00 | 0.00 | 0.00 | 44 | 1007.1 |
| 20260509125307 | 96 | 304 | 1.0 | 2.0 | 0.00 | 0.00 | 0.00 | 44 | 1007.1 |
| 20260509125203 | 96 | 325 | 1.0 | 2.0 | 0.00 | 0.00 | 0.00 | 44 | 1007.1 |
| 20260509125006 | 96 | 325 | 1.0 | 2.0 | 0.00 | 0.00 | 0.00 | 44 | 1007.1 |
| 20260509124903 | 96 | 325 | 1.0 | 2.0 | 0.00 | 0.00 | 0.00 | 44 | 1007.1 |
| 20260509124802 | 96 | 325 | 2.0 | 2.0 | 0.00 | 0.00 | 0.00 | 44 | 1007.1 |
| 20260509124701 | 96 | 321 | 1.0 | 2.0 | 0.00 | 0.00 | 0.00 | 44 | 1007.1 |
| 20260509124603 | 96 | 321 | 1.0 | 2.0 | 0.00 | 0.00 | 0.00 | 44 | 1007.1 |
| 20260509124505 | 96 | 321 | 1.0 | 2.0 | 0.00 | 0.00 | 0.00 | 43 | 1007.1 |
| 20260509124402 | 96 | 348 | 1.0 | 2.0 | 0.00 | 0.00 | 0.00 | 43 | 1007.1 |
| 20260509124302 | 96 | 331 | 1.0 | 2.0 | 0.00 | 0.00 | 0.00 | 43 | 1007.1 |
| 20260509124203 | 96 | 338 | 1.0 | 2.0 | 0.00 | 0.00 | 0.00 | 43 | 1007.0 |
| 20260509124005 | 96 | 327 | 1.0 | 2.0 | 0.00 | 0.00 | 0.00 | 43 | 1007.0 |
| 20260509123904 | 96 | 327 | 1.0 | 2.0 | 0.00 | 0.00 | 0.00 | 43 | 1007.0 |
| 20260509123803 | 96 | 327 | 1.0 | 2.0 | 0.00 | 0.00 | 0.00 | 43 | 1007.0 |
| 20260509123708 | 96 | 327 | 1.0 | 2.0 | 0.00 | 0.00 | 0.00 | 43 | 1007.0 |
| 20260509123602 | 96 | 327 | 0.0 | 1.0 | 0.00 | 0.00 | 0.00 | 43 | 1007.0 |
| 20260509123505 | 96 | 327 | 0.0 | 1.0 | 0.00 | 0.00 | 0.00 | 43 | 1007.0 |
| 20260509123403 | 96 | 327 | 0.0 | 2.0 | 0.00 | 0.00 | 0.00 | 43 | 1007.0 |
| 20260509123303 | 96 | 327 | 0.0 | 3.0 | 0.00 | 0.00 | 0.00 | 43 | 1007.0 |
| 20260509123201 | 96 | 306 | 0.0 | 3.0 | 0.00 | 0.00 | 0.00 | 43 | 1007.1 |
| 20260509123103 | 96 | 231 | 0.0 | 3.0 | 0.00 | 0.00 | 0.00 | 43 | 1007.0 |
| 20260509123005 | 96 | 231 | 0.0 | 3.0 | 0.00 | 0.00 | 0.00 | 43 | 1007.0 |
| 20260509122902 | 96 | 232 | 0.0 | 3.0 | 0.00 | 0.00 | 0.00 | 43 | 1007.0 |
| 20260509122803 | 96 | 252 | 0.0 | 3.0 | 0.00 | 0.00 | 0.00 | 43 | 1007.0 |
| 20260509122702 | 96 | 269 | 0.0 | 3.0 | 0.00 | 0.00 | 0.00 | 43 | 1007.0 |
| 20260509122606 | 96 | 269 | 1.0 | 3.0 | 0.00 | 0.00 | 0.00 | 43 | 1007.0 |
| 20260509122403 | 96 | 276 | 2.0 | 3.0 | 0.00 | 0.00 | 0.00 | 43 | 1007.0 |
| 20260509122305 | 96 | 248 | 1.0 | 3.0 | 0.00 | 0.00 | 0.00 | 43 | 1007.0 |
| 20260509122102 | 96 | 287 | 1.0 | 2.0 | 0.00 | 0.00 | 0.00 | 43 | 1007.0 |
| 20260509122006 | 96 | 288 | 1.0 | 2.0 | 0.00 | 0.00 | 0.00 | 43 | 1007.1 |
| 20260509121902 | 96 | 35 | 1.0 | 2.0 | 0.00 | 0.00 | 0.00 | 43 | 1007.0 |
| 20260509121803 | 96 | 41 | 1.0 | 2.0 | 0.00 | 0.00 | 0.00 | 43 | 1007.1 |
| 20260509121703 | 96 | 277 | 1.0 | 2.0 | 0.00 | 0.00 | 0.00 | 42 | 1007.0 |
| 20260509121604 | 96 | 273 | 1.0 | 2.0 | 0.00 | 0.00 | 0.00 | 42 | 1007.1 |
| 20260509121505 | 96 | 264 | 0.0 | 2.0 | 0.00 | 0.00 | 0.00 | 42 | 1007.0 |
| 20260509121402 | 96 | 223 | 0.0 | 2.0 | 0.00 | 0.00 | 0.00 | 42 | 1007.0 |
| 20260509121303 | 96 | 242 | 0.0 | 2.0 | 0.00 | 0.00 | 0.00 | 42 | 1007.1 |
| 20260509121202 | 96 | 242 | 1.0 | 2.0 | 0.00 | 0.00 | 0.00 | 42 | 1007.1 |
| 20260509121103 | 96 | 227 | 1.0 | 2.0 | 0.00 | 0.00 | 0.00 | 42 | 1007.0 |
| 20260509121006 | 96 | 227 | 1.0 | 2.0 | 0.00 | 0.00 | 0.00 | 42 | 1007.1 |
| 20260509120902 | 96 | 205 | 0.0 | 2.0 | 0.00 | 0.00 | 0.00 | 42 | 1007.1 |
| 20260509120803 | 96 | 205 | 0.0 | 2.0 | 0.00 | 0.00 | 0.00 | 42 | 1007.0 |
| 20260509120705 | 97 | 205 | 0.0 | 2.0 | 0.00 | 0.00 | 0.00 | 42 | 1007.1 |
| 20260509120603 | 96 | 205 | 0.0 | 2.0 | 0.00 | 0.00 | 0.00 | 42 | 1007.1 |
| 20260509120505 | 97 | 205 | 1.0 | 2.0 | 0.00 | 0.00 | 0.00 | 42 | 1007.1 |
| 20260509120402 | 97 | 205 | 0.0 | 2.0 | 0.00 | 0.00 | 0.00 | 42 | 1007.1 |
| 20260509120202 | 97 | 245 | 0.0 | 2.0 | 0.00 | 0.00 | 0.00 | 42 | 1007.1 |
| 20260509120009 | 97 | 247 | 1.0 | 2.0 | 0.00 | 0.00 | 0.00 | 43 | 1007.1 |
| 20260509115905 | 96 | 273 | 0.0 | 1.0 | 0.00 | 0.00 | 0.00 | 42 | 1007.1 |
| 20260509115803 | 97 | 264 | 0.0 | 1.0 | 0.00 | 0.00 | 0.00 | 42 | 1007.1 |
| 20260509115704 | 96 | 264 | 0.0 | 1.0 | 0.00 | 0.00 | 0.00 | 42 | 1007.1 |
| 20260509115505 | 96 | 264 | 0.0 | 2.0 | 0.00 | 0.00 | 0.00 | 42 | 1007.1 |
| 20260509115405 | 96 | 256 | 0.0 | 2.0 | 0.00 | 0.00 | 0.00 | 43 | 1007.1 |
| 20260509115306 | 96 | 238 | 0.0 | 2.0 | 0.00 | 0.00 | 0.00 | 43 | 1007.1 |
| 20260509115204 | 97 | 234 | 1.0 | 2.0 | 0.00 | 0.00 | 0.00 | 43 | 1007.1 |
| 20260509115104 | 97 | 234 | 1.0 | 2.0 | 0.00 | 0.00 | 0.00 | 42 | 1007.1 |
| 20260509115008 | 96 | 232 | 1.0 | 2.0 | 0.00 | 0.00 | 0.00 | 43 | 1007.1 |
| 20260509114905 | 97 | 232 | 1.0 | 2.0 | 0.00 | 0.00 | 0.00 | 43 | 1007.1 |
| 20260509114803 | 96 | 227 | 1.0 | 2.0 | 0.00 | 0.00 | 0.00 | 43 | 1007.1 |
| 20260509114703 | 96 | 253 | 1.0 | 2.0 | 0.00 | 0.00 | 0.00 | 42 | 1007.1 |
| 20260509114604 | 96 | 175 | 1.0 | 1.0 | 0.00 | 0.00 | 0.00 | 42 | 1007.1 |
| 20260509114508 | 96 | 176 | 0.0 | 1.0 | 0.00 | 0.00 | 0.00 | 42 | 1007.1 |
| 20260509114404 | 96 | 223 | 0.0 | 0.0 | 0.00 | 0.00 | 0.00 | 42 | 1007.1 |
| 20260509114203 | 96 | 223 | 0.0 | 1.0 | 0.00 | 0.00 | 0.00 | 43 | 1007.1 |
| 20260509114103 | 96 | 236 | 0.0 | 2.0 | 0.00 | 0.00 | 0.00 | 42 | 1007.1 |
| 20260509114006 | 96 | 236 | 0.0 | 2.0 | 0.00 | 0.00 | 0.00 | 42 | 1007.1 |
| 20260509113902 | 96 | 236 | 0.0 | 2.0 | 0.00 | 0.00 | 0.00 | 42 | 1007.2 |
| 20260509113804 | 96 | 236 | 0.0 | 2.0 | 0.00 | 0.00 | 0.00 | 42 | 1007.2 |
| 20260509113703 | 96 | 236 | 0.0 | 2.0 | 0.00 | 0.00 | 0.00 | 42 | 1007.2 |
| 20260509113604 | 96 | 236 | 0.0 | 3.0 | 0.00 | 0.00 | 0.00 | 43 | 1007.2 |
| 20260509113506 | 96 | 236 | 0.0 | 3.0 | 0.00 | 0.00 | 0.00 | 43 | 1007.2 |
| 20260509113405 | 96 | 236 | 0.0 | 3.0 | 0.00 | 0.00 | 0.00 | 43 | 1007.1 |
| 20260509113303 | 96 | 239 | 1.0 | 3.0 | 0.00 | 0.00 | 0.00 | 44 | 1007.2 |
| 20260509113203 | 96 | 257 | 1.0 | 3.0 | 0.00 | 0.00 | 0.00 | 43 | 1007.1 |
| 20260509113106 | 96 | 261 | 1.0 | 3.0 | 0.00 | 0.00 | 0.00 | 43 | 1007.1 |
| 20260509112904 | 96 | 269 | 1.0 | 4.0 | 0.00 | 0.00 | 0.00 | 42 | 1007.2 |
| 20260509112803 | 96 | 269 | 1.0 | 4.0 | 0.00 | 0.00 | 0.00 | 42 | 1007.2 |
| 20260509112706 | 96 | 269 | 1.0 | 4.0 | 0.00 | 0.00 | 0.00 | 43 | 1007.2 |
| 20260509112603 | 96 | 282 | 0.0 | 4.0 | 0.00 | 0.00 | 0.00 | 42 | 1007.2 |
| 20260509112505 | 96 | 161 | 1.0 | 4.0 | 0.00 | 0.00 | 0.00 | 42 | 1007.3 |
| 20260509112404 | 96 | 155 | 1.0 | 5.0 | 0.00 | 0.00 | 0.00 | 42 | 1007.3 |
| 20260509112307 | 96 | 159 | 2.0 | 6.0 | 0.00 | 0.00 | 0.00 | 42 | 1007.2 |
| 20260509112203 | 96 | 202 | 2.0 | 6.0 | 0.00 | 0.00 | 0.00 | 42 | 1007.4 |
| 20260509112103 | 96 | 217 | 2.0 | 6.0 | 0.00 | 0.00 | 0.00 | 42 | 1007.3 |
| 20260509112006 | 96 | 218 | 2.0 | 6.0 | 0.00 | 0.00 | 0.00 | 43 | 1007.3 |
| 20260509111904 | 96 | 209 | 2.0 | 6.0 | 0.00 | 0.00 | 0.00 | 42 | 1007.3 |
| 20260509111804 | 96 | 153 | 3.0 | 6.0 | 0.00 | 0.00 | 0.00 | 42 | 1007.2 |
| 20260509111506 | 97 | 205 | 2.0 | 6.0 | 0.00 | 0.00 | 0.00 | 42 | 1007.3 |
| 20260509111403 | 97 | 260 | 1.0 | 6.0 | 0.00 | 0.00 | 0.00 | 42 | 1007.3 |
| 20260509111304 | 97 | 216 | 1.0 | 6.0 | 0.00 | 0.00 | 0.00 | 43 | 1007.3 |
| 20260509111203 | 97 | 223 | 1.0 | 6.0 | 0.00 | 0.00 | 0.00 | 43 | 1007.3 |
| 20260509111006 | 97 | 293 | 3.0 | 6.0 | 0.00 | 0.00 | 0.00 | 42 | 1007.3 |
| 20260509110803 | 97 | 284 | 1.0 | 4.0 | 0.00 | 0.00 | 0.00 | 42 | 1007.3 |
| 20260509110505 | 97 | 349 | 2.0 | 6.0 | 0.00 | 0.00 | 0.00 | 42 | 1007.3 |
| 20260509110403 | 97 | 355 | 2.0 | 6.0 | 0.00 | 0.00 | 0.00 | 42 | 1007.3 |
| 20260509110303 | 97 | 342 | 1.0 | 6.0 | 0.00 | 0.00 | 0.00 | 42 | 1007.3 |
| 20260509110203 | 97 | 333 | 2.0 | 6.0 | 0.00 | 0.00 | 0.00 | 42 | 1007.3 |
| 20260509110103 | 97 | 328 | 3.0 | 6.0 | 0.00 | 0.00 | 0.00 | 41 | 1007.3 |
| 20260509105507 | 97 | 282 | 3.0 | 7.0 | 0.00 | 0.00 | 0.00 | 42 | 1007.3 |
| 20260509105403 | 98 | 263 | 4.0 | 7.0 | 0.00 | 0.00 | 0.00 | 41 | 1007.3 |
| 20260509105306 | 98 | 294 | 4.0 | 7.0 | 0.00 | 0.00 | 0.00 | 41 | 1007.3 |
| 20260509105203 | 98 | 288 | 3.0 | 7.0 | 0.00 | 0.00 | 0.00 | 42 | 1007.3 |
| 20260509105103 | 98 | 297 | 2.0 | 7.0 | 0.00 | 0.00 | 0.00 | 41 | 1007.3 |
| 20260509105005 | 98 | 315 | 1.0 | 4.0 | 0.00 | 0.00 | 0.00 | 41 | 1007.3 |
| 20260509104902 | 97 | 331 | 0.0 | 4.0 | 0.00 | 0.00 | 0.00 | 41 | 1007.3 |
| 20260509104804 | 97 | 355 | 0.0 | 4.0 | 0.00 | 0.00 | 0.00 | 41 | 1007.3 |
| 20260509104703 | 97 | 355 | 0.0 | 4.0 | 0.00 | 0.00 | 0.00 | 41 | 1007.4 |
| 20260509104604 | 97 | 342 | 1.0 | 4.0 | 0.00 | 0.00 | 0.00 | 41 | 1007.4 |
| 20260509104503 | 97 | 350 | 2.0 | 4.0 | 0.00 | 0.00 | 0.00 | 41 | 1007.4 |
| 20260509104402 | 97 | 346 | 2.0 | 4.0 | 0.00 | 0.00 | 0.00 | 41 | 1007.4 |
| 20260509104108 | 97 | 347 | 2.0 | 4.0 | 0.00 | 0.00 | 0.00 | 42 | 1007.4 |
| 20260509104009 | 97 | 325 | 1.0 | 2.0 | 0.00 | 0.00 | 0.00 | 41 | 1007.4 |
| 20260509103904 | 97 | 31 | 1.0 | 2.0 | 0.00 | 0.00 | 0.00 | 41 | 1007.5 |
| 20260509103704 | 97 | 341 | 1.0 | 2.0 | 0.00 | 0.00 | 0.00 | 42 | 1007.4 |
| 20260509103505 | 97 | 328 | 0.0 | 2.0 | 0.00 | 0.00 | 0.00 | 42 | 1007.4 |
| 20260509103405 | 97 | 283 | 0.0 | 2.0 | 0.00 | 0.00 | 0.00 | 43 | 1007.5 |
| 20260509103301 | 97 | 282 | 1.0 | 2.0 | 0.00 | 0.00 | 0.00 | 42 | 1007.4 |
| 20260509103203 | 97 | 282 | 1.0 | 3.0 | 0.00 | 0.00 | 0.00 | 42 | 1007.5 |
| 20260509103102 | 96 | 311 | 1.0 | 3.0 | 0.00 | 0.00 | 0.00 | 43 | 1007.4 |
| 20260509102802 | 96 | 220 | 1.0 | 3.0 | 0.00 | 0.00 | 0.00 | 43 | 1007.4 |
| 20260509102704 | 96 | 233 | 1.0 | 3.0 | 0.00 | 0.00 | 0.00 | 43 | 1007.5 |
| 20260509102603 | 96 | 230 | 1.0 | 3.0 | 0.00 | 0.00 | 0.00 | 44 | 1007.5 |
| 20260509102409 | 96 | 252 | 1.0 | 4.0 | 0.00 | 0.00 | 0.00 | 43 | 1007.4 |
| 20260509101903 | 96 | 236 | 1.0 | 4.0 | 0.00 | 0.00 | 0.00 | 43 | 1007.5 |
| 20260509101802 | 96 | 277 | 2.0 | 8.0 | 0.00 | 0.00 | 0.00 | 44 | 1007.6 |
| 20260509101704 | 96 | 248 | 2.0 | 8.0 | 0.00 | 0.00 | 0.00 | 43 | 1007.5 |
| 20260509101604 | 96 | 210 | 1.0 | 8.0 | 0.00 | 0.00 | 0.00 | 44 | 1007.6 |
| 20260509101504 | 96 | 210 | 0.0 | 8.0 | 0.00 | 0.00 | 0.00 | 43 | 1007.6 |
| 20260509101403 | 96 | 244 | 1.0 | 8.0 | 0.00 | 0.00 | 0.00 | 43 | 1007.6 |
| 20260509101302 | 96 | 244 | 3.0 | 8.0 | 0.00 | 0.00 | 0.00 | 43 | 1007.6 |
| 20260509101204 | 96 | 238 | 3.0 | 8.0 | 0.00 | 0.00 | 0.00 | 43 | 1007.6 |
| 20260509101006 | 96 | 246 | 2.0 | 8.0 | 0.00 | 0.00 | 0.00 | 43 | 1007.6 |
| 20260509100903 | 96 | 255 | 0.0 | 4.0 | 0.00 | 0.00 | 0.00 | 43 | 1007.7 |
| 20260509100802 | 96 | 139 | 0.0 | 4.0 | 0.00 | 0.00 | 0.00 | 43 | 1007.6 |
| 20260509100704 | 96 | 99 | 0.0 | 4.0 | 0.00 | 0.00 | 0.00 | 42 | 1007.5 |
| 20260509100505 | 96 | 147 | 3.0 | 5.0 | 0.00 | 0.00 | 0.00 | 42 | 1007.7 |
| 20260509100406 | 96 | 169 | 3.0 | 7.0 | 0.00 | 0.00 | 0.00 | 43 | 1007.7 |
| 20260509100303 | 96 | 184 | 2.0 | 7.0 | 0.00 | 0.00 | 0.00 | 43 | 1007.7 |
| 20260509100202 | 96 | 265 | 2.0 | 7.0 | 0.00 | 0.00 | 0.00 | 43 | 1007.7 |
| 20260509095905 | 96 | 233 | 2.0 | 7.0 | 0.00 | 0.00 | 0.00 | 44 | 1007.7 |
| 20260509095802 | 96 | 242 | 3.0 | 7.0 | 0.00 | 0.00 | 0.00 | 44 | 1007.7 |
| 20260509095703 | 96 | 231 | 5.0 | 7.0 | 0.00 | 0.00 | 0.00 | 42 | 1007.8 |
| 20260509095604 | 96 | 265 | 5.0 | 7.0 | 0.00 | 0.00 | 0.00 | 43 | 1007.8 |
| 20260509095504 | 96 | 279 | 4.0 | 7.0 | 0.00 | 0.00 | 0.00 | 43 | 1007.7 |
| 20260509095402 | 96 | 265 | 3.0 | 7.0 | 0.00 | 0.00 | 0.00 | 43 | 1007.8 |
| 20260509095305 | 96 | 306 | 3.0 | 7.0 | 0.00 | 0.00 | 0.00 | 43 | 1007.8 |
| 20260509095204 | 96 | 242 | 2.0 | 7.0 | 0.00 | 0.00 | 0.00 | 43 | 1007.7 |
| 20260509095103 | 96 | 303 | 3.0 | 7.0 | 0.00 | 0.00 | 0.00 | 44 | 1007.8 |
| 20260509094903 | 96 | 210 | 3.0 | 9.0 | 0.00 | 0.00 | 0.00 | 44 | 1007.8 |
| 20260509094603 | 96 | 276 | 2.0 | 9.0 | 0.00 | 0.00 | 0.00 | 43 | 1007.8 |
| 20260509094504 | 96 | 294 | 3.0 | 9.0 | 0.00 | 0.00 | 0.00 | 43 | 1007.9 |
| 20260509094402 | 96 | 286 | 3.0 | 9.0 | 0.00 | 0.00 | 0.00 | 44 | 1007.9 |
| 20260509094302 | 96 | 275 | 4.0 | 9.0 | 0.00 | 0.00 | 0.00 | 43 | 1007.9 |
| 20260509094101 | 96 | 209 | 2.0 | 9.0 | 0.00 | 0.00 | 0.00 | 44 | 1007.9 |
| 20260509094005 | 96 | 219 | 3.0 | 9.0 | 0.00 | 0.00 | 0.00 | 43 | 1007.9 |
| 20260509093802 | 96 | 244 | 3.0 | 9.0 | 0.00 | 0.00 | 0.00 | 44 | 1008.0 |
| 20260509093701 | 96 | 248 | 4.0 | 9.0 | 0.00 | 0.00 | 0.00 | 43 | 1008.0 |
| 20260509093602 | 96 | 210 | 5.0 | 9.0 | 0.00 | 0.00 | 0.00 | 43 | 1008.0 |
| 20260509093404 | 96 | 219 | 3.0 | 8.0 | 0.00 | 0.00 | 0.00 | 44 | 1007.9 |
| 20260509093204 | 96 | 169 | 4.0 | 9.0 | 0.00 | 0.00 | 0.00 | 44 | 1008.0 |
| 20260509093103 | 96 | 256 | 3.0 | 5.0 | 0.00 | 0.00 | 0.00 | 43 | 1008.0 |
| 20260509093008 | 96 | 214 | 3.0 | 5.0 | 0.00 | 0.00 | 0.00 | 44 | 1008.0 |
| 20260509092904 | 96 | 239 | 3.0 | 5.0 | 0.00 | 0.00 | 0.00 | 44 | 1008.0 |
| 20260509092704 | 96 | 317 | 1.0 | 3.0 | 0.00 | 0.00 | 0.00 | 44 | 1008.0 |
| 20260509092606 | 96 | 327 | 0.0 | 2.0 | 0.00 | 0.00 | 0.00 | 44 | 1008.0 |
| 20260509092506 | 96 | 328 | 0.0 | 4.0 | 0.00 | 0.00 | 0.00 | 44 | 1007.9 |
| 20260509092404 | 96 | 313 | 0.0 | 4.0 | 0.00 | 0.00 | 0.00 | 44 | 1008.0 |
| 20260509092306 | 96 | 313 | 0.0 | 4.0 | 0.00 | 0.00 | 0.00 | 45 | 1008.0 |
| 20260509092204 | 96 | 346 | 0.0 | 4.0 | 0.00 | 0.00 | 0.00 | 46 | 1008.0 |
| 20260509092103 | 95 | 225 | 1.0 | 4.0 | 0.00 | 0.00 | 0.00 | 46 | 1008.1 |
| 20260509092006 | 95 | 202 | 1.0 | 4.0 | 0.00 | 0.00 | 0.00 | 45 | 1008.1 |
| 20260509091904 | 95 | 240 | 1.0 | 5.0 | 0.00 | 0.00 | 0.00 | 45 | 1008.0 |
| 20260509091802 | 95 | 232 | 1.0 | 7.0 | 0.00 | 0.00 | 0.00 | 45 | 1008.0 |
| 20260509091703 | 95 | 251 | 2.0 | 7.0 | 0.00 | 0.00 | 0.00 | 45 | 1008.0 |
| 20260509091604 | 95 | 240 | 2.0 | 7.0 | 0.00 | 0.00 | 0.00 | 45 | 1008.0 |
| 20260509091507 | 95 | 252 | 2.0 | 7.0 | 0.00 | 0.00 | 0.00 | 46 | 1008.1 |
| 20260509091403 | 95 | 245 | 1.0 | 7.0 | 0.00 | 0.00 | 0.00 | 45 | 1008.1 |
| 20260509091303 | 95 | 276 | 1.0 | 7.0 | 0.00 | 0.00 | 0.00 | 44 | 1008.1 |
| 20260509091201 | 95 | 271 | 2.0 | 7.0 | 0.00 | 0.00 | 0.00 | 44 | 1008.2 |
| 20260509091006 | 95 | 245 | 2.0 | 7.0 | 0.00 | 0.00 | 0.00 | 44 | 1008.1 |
| 20260509090903 | 95 | 214 | 1.0 | 7.0 | 0.00 | 0.00 | 0.00 | 44 | 1008.2 |
| 20260509090802 | 95 | 173 | 2.0 | 7.0 | 0.00 | 0.00 | 0.00 | 44 | 1008.2 |
| 20260509090704 | 95 | 202 | 1.0 | 7.0 | 0.00 | 0.00 | 0.00 | 44 | 1008.1 |
| 20260509090504 | 95 | 239 | 2.0 | 7.0 | 0.00 | 0.00 | 0.00 | 44 | 1008.2 |
| 20260509090402 | 95 | 214 | 4.0 | 7.0 | 0.00 | 0.00 | 0.00 | 45 | 1008.2 |
| 20260509090006 | 94 | 186 | 1.0 | 5.0 | 0.00 | 0.00 | 0.00 | 45 | 1008.2 |
| 20260509085902 | 94 | 320 | 2.0 | 5.0 | 0.00 | 0.00 | 0.00 | 45 | 1008.3 |
| 20260509085802 | 94 | 221 | 3.0 | 5.0 | 0.00 | 0.00 | 0.00 | 46 | 1008.2 |
| 20260509085602 | 94 | 243 | 3.0 | 6.0 | 0.00 | 0.00 | 0.00 | 45 | 1008.2 |
| 20260509085505 | 94 | 223 | 3.0 | 6.0 | 0.00 | 0.00 | 0.00 | 45 | 1008.2 |
| 20260509085402 | 94 | 207 | 2.0 | 9.0 | 0.00 | 0.00 | 0.00 | 45 | 1008.3 |
| 20260509085202 | 94 | 255 | 4.0 | 9.0 | 0.00 | 0.00 | 0.00 | 45 | 1008.2 |
| 20260509085102 | 94 | 245 | 4.0 | 9.0 | 0.00 | 0.00 | 0.00 | 45 | 1008.2 |
| 20260509085005 | 94 | 261 | 3.0 | 9.0 | 0.00 | 0.00 | 0.00 | 46 | 1008.3 |
| 20260509084903 | 94 | 245 | 3.0 | 9.0 | 0.00 | 0.00 | 0.00 | 45 | 1008.3 |
| 20260509084803 | 94 | 213 | 4.0 | 9.0 | 0.00 | 0.00 | 0.00 | 45 | 1008.2 |
| 20260509084702 | 94 | 233 | 4.0 | 9.0 | 0.00 | 0.00 | 0.00 | 45 | 1008.3 |
| 20260509084604 | 94 | 262 | 3.0 | 7.0 | 0.00 | 0.00 | 0.00 | 45 | 1008.2 |
| 20260509084402 | 94 | 188 | 3.0 | 7.0 | 0.00 | 0.00 | 0.00 | 45 | 1008.4 |
| 20260509084302 | 94 | 200 | 4.0 | 8.0 | 0.00 | 0.00 | 0.00 | 45 | 1008.4 |
| 20260509084202 | 94 | 211 | 3.0 | 8.0 | 0.00 | 0.00 | 0.00 | 45 | 1008.4 |
| 20260509084103 | 94 | 236 | 4.0 | 8.0 | 0.00 | 0.00 | 0.00 | 46 | 1008.4 |
| 20260509084007 | 94 | 254 | 5.0 | 8.0 | 0.00 | 0.00 | 0.00 | 45 | 1008.3 |
| 20260509083902 | 94 | 260 | 5.0 | 8.0 | 0.00 | 0.00 | 0.00 | 46 | 1008.4 |
| 20260509083803 | 94 | 267 | 4.0 | 8.0 | 0.00 | 0.00 | 0.00 | 46 | 1008.4 |
| 20260509083702 | 94 | 238 | 4.0 | 8.0 | 0.00 | 0.00 | 0.00 | 45 | 1008.4 |
| 20260509083602 | 94 | 254 | 4.0 | 8.0 | 0.00 | 0.00 | 0.00 | 45 | 1008.5 |
| 20260509083504 | 94 | 215 | 3.0 | 8.0 | 0.00 | 0.00 | 0.00 | 45 | 1008.6 |
| 20260509083402 | 94 | 243 | 1.0 | 4.0 | 0.00 | 0.00 | 0.00 | 45 | 1008.6 |
| 20260509083302 | 94 | 218 | 1.0 | 4.0 | 0.00 | 0.00 | 0.00 | 45 | 1008.6 |
| 20260509083202 | 94 | 227 | 2.0 | 4.0 | 0.00 | 0.00 | 0.00 | 45 | 1008.5 |
| 20260509083102 | 94 | 231 | 3.0 | 4.0 | 0.00 | 0.00 | 0.00 | 45 | 1008.6 |
| 20260509083005 | 94 | 252 | 3.0 | 4.0 | 0.00 | 0.00 | 0.00 | 44 | 1008.6 |
| 20260509082902 | 94 | 258 | 2.0 | 5.0 | 0.00 | 0.00 | 0.00 | 45 | 1008.6 |
| 20260509082702 | 94 | 250 | 1.0 | 9.0 | 0.00 | 0.00 | 0.00 | 45 | 1008.7 |
| 20260509082602 | 94 | 219 | 1.0 | 9.0 | 0.00 | 0.00 | 0.00 | 45 | 1008.7 |
| 20260509082505 | 94 | 200 | 2.0 | 9.0 | 0.00 | 0.00 | 0.00 | 44 | 1008.7 |
| 20260509082401 | 94 | 229 | 2.0 | 9.0 | 0.00 | 0.00 | 0.00 | 44 | 1008.8 |
| 20260509082301 | 94 | 178 | 3.0 | 9.0 | 0.00 | 0.00 | 0.00 | 45 | 1008.7 |
| 20260509082102 | 94 | 225 | 3.0 | 9.0 | 0.00 | 0.00 | 0.00 | 45 | 1008.8 |
| 20260509082006 | 94 | 226 | 4.0 | 9.0 | 0.00 | 0.00 | 0.00 | 45 | 1008.8 |
| 20260509081904 | 94 | 209 | 4.0 | 9.0 | 0.00 | 0.00 | 0.00 | 45 | 1008.8 |
| 20260509081803 | 95 | 248 | 4.0 | 8.0 | 0.00 | 0.00 | 0.00 | 45 | 1008.8 |
| 20260509081700 | 95 | 264 | 3.0 | 7.0 | 0.00 | 0.00 | 0.00 | 45 | 1008.9 |
| 20260509081603 | 95 | 212 | 3.0 | 7.0 | 0.00 | 0.00 | 0.00 | 45 | 1008.9 |
| 20260509081504 | 95 | 267 | 3.0 | 7.0 | 0.00 | 0.00 | 0.00 | 44 | 1008.8 |
| 20260509081302 | 95 | 271 | 3.0 | 6.0 | 0.00 | 0.00 | 0.00 | 44 | 1008.9 |
| 20260509081204 | 95 | 223 | 2.0 | 6.0 | 0.00 | 0.00 | 0.00 | 44 | 1008.9 |
| 20260509081102 | 95 | 247 | 2.0 | 6.0 | 0.00 | 0.00 | 0.00 | 45 | 1008.9 |
| 20260509081005 | 95 | 196 | 2.0 | 5.0 | 0.00 | 0.00 | 0.00 | 46 | 1008.9 |
| 20260509080902 | 95 | 242 | 3.0 | 6.0 | 0.00 | 0.00 | 0.00 | 44 | 1009.0 |
| 20260509080803 | 95 | 198 | 3.0 | 7.0 | 0.00 | 0.00 | 0.00 | 45 | 1009.0 |
| 20260509080702 | 95 | 209 | 2.0 | 7.0 | 0.00 | 0.00 | 0.00 | 45 | 1009.0 |
| 20260509080602 | 95 | 208 | 2.0 | 7.0 | 0.00 | 0.00 | 0.00 | 45 | 1009.1 |
| 20260509080403 | 95 | 238 | 2.0 | 7.0 | 0.00 | 0.00 | 0.00 | 45 | 1009.0 |
| 20260509080302 | 95 | 215 | 3.0 | 7.0 | 0.00 | 0.00 | 0.00 | 46 | 1009.0 |
| 20260509080203 | 95 | 215 | 4.0 | 7.0 | 0.00 | 0.00 | 0.00 | 44 | 1009.1 |
| 20260509075903 | 95 | 140 | 1.0 | 4.0 | 0.00 | 0.00 | 0.00 | 44 | 1009.1 |
| 20260509075803 | 95 | 109 | 1.0 | 4.0 | 0.00 | 0.00 | 0.00 | 44 | 1009.2 |
| 20260509075703 | 95 | 194 | 2.0 | 4.0 | 0.00 | 0.00 | 0.00 | 45 | 1009.1 |
| 20260509075603 | 95 | 224 | 2.0 | 4.0 | 0.00 | 0.00 | 0.00 | 45 | 1009.1 |
| 20260509075504 | 95 | 217 | 2.0 | 7.0 | 0.00 | 0.00 | 0.00 | 43 | 1009.1 |
| 20260509075403 | 95 | 189 | 2.0 | 7.0 | 0.00 | 0.00 | 0.00 | 44 | 1009.1 |
| 20260509075103 | 95 | 275 | 1.0 | 7.0 | 0.00 | 0.00 | 0.00 | 44 | 1009.2 |
| 20260509075007 | 95 | 276 | 2.0 | 7.0 | 0.00 | 0.00 | 0.00 | 44 | 1009.2 |
| 20260509074904 | 95 | 167 | 3.0 | 7.0 | 0.00 | 0.00 | 0.00 | 44 | 1009.2 |
| 20260509074803 | 95 | 198 | 3.0 | 7.0 | 0.00 | 0.00 | 0.00 | 43 | 1009.3 |
| 20260509074604 | 95 | 126 | 3.0 | 7.0 | 0.00 | 0.00 | 0.00 | 43 | 1009.3 |
| 20260509074505 | 95 | 163 | 4.0 | 7.0 | 0.00 | 0.00 | 0.00 | 44 | 1009.3 |
| 20260509074403 | 95 | 144 | 4.0 | 7.0 | 0.00 | 0.00 | 0.00 | 43 | 1009.3 |
| 20260509074305 | 96 | 186 | 2.0 | 7.0 | 0.00 | 0.00 | 0.00 | 45 | 1009.3 |
| 20260509074205 | 96 | 243 | 0.0 | 3.0 | 0.00 | 0.00 | 0.00 | 44 | 1009.3 |
| 20260509074104 | 95 | 289 | 1.0 | 3.0 | 0.00 | 0.00 | 0.00 | 44 | 1009.4 |
| 20260509074008 | 95 | 279 | 1.0 | 3.0 | 0.00 | 0.00 | 0.00 | 44 | 1009.4 |
| 20260509073903 | 95 | 331 | 1.0 | 3.0 | 0.00 | 0.00 | 0.00 | 44 | 1009.4 |
| 20260509073806 | 95 | 275 | 1.0 | 4.0 | 0.00 | 0.00 | 0.00 | 44 | 1009.4 |
| 20260509073705 | 95 | 307 | 1.0 | 4.0 | 0.00 | 0.00 | 0.00 | 43 | 1009.4 |
| 20260509073508 | 95 | 238 | 0.0 | 4.0 | 0.00 | 0.00 | 0.00 | 44 | 1009.4 |
| 20260509073405 | 95 | 238 | 0.0 | 4.0 | 0.00 | 0.00 | 0.00 | 43 | 1009.5 |
| 20260509073203 | 95 | 9 | 1.0 | 4.0 | 0.00 | 0.00 | 0.00 | 43 | 1009.5 |
| 20260509073103 | 95 | 303 | 2.0 | 4.0 | 0.00 | 0.00 | 0.00 | 43 | 1009.6 |
| 20260509073008 | 94 | 47 | 2.0 | 4.0 | 0.00 | 0.00 | 0.00 | 43 | 1009.6 |
| 20260509072902 | 94 | 360 | 0.0 | 3.0 | 0.00 | 0.00 | 0.00 | 44 | 1009.6 |
| 20260509072805 | 94 | 360 | 0.0 | 2.0 | 0.00 | 0.00 | 0.00 | 44 | 1009.6 |
| 20260509072603 | 94 | 355 | 0.0 | 2.0 | 0.00 | 0.00 | 0.00 | 44 | 1009.7 |
| 20260509072506 | 94 | 355 | 1.0 | 2.0 | 0.00 | 0.00 | 0.00 | 43 | 1009.7 |
| 20260509072306 | 94 | 343 | 0.0 | 3.0 | 0.00 | 0.00 | 0.00 | 45 | 1009.7 |
| 20260509072205 | 94 | 303 | 0.0 | 3.0 | 0.00 | 0.00 | 0.00 | 45 | 1009.7 |
| 20260509072105 | 94 | 302 | 0.0 | 3.0 | 0.00 | 0.00 | 0.00 | 45 | 1009.7 |
| 20260509072008 | 94 | 324 | 1.0 | 3.0 | 0.00 | 0.00 | 0.00 | 45 | 1009.7 |
| 20260509071904 | 93 | 323 | 1.0 | 3.0 | 0.00 | 0.00 | 0.00 | 45 | 1009.7 |
| 20260509071805 | 93 | 275 | 1.0 | 3.0 | 0.00 | 0.00 | 0.00 | 45 | 1009.7 |
| 20260509071705 | 93 | 297 | 1.0 | 4.0 | 0.00 | 0.00 | 0.00 | 46 | 1009.8 |
| 20260509071605 | 93 | 291 | 1.0 | 5.0 | 0.00 | 0.00 | 0.00 | 45 | 1009.8 |
| 20260509071507 | 93 | 289 | 2.0 | 5.0 | 0.00 | 0.00 | 0.00 | 45 | 1009.8 |
| 20260509071403 | 93 | 293 | 1.0 | 5.0 | 0.00 | 0.00 | 0.00 | 44 | 1009.8 |
| 20260509071304 | 93 | 90 | 1.0 | 5.0 | 0.00 | 0.00 | 0.00 | 45 | 1009.8 |
| 20260509071203 | 93 | 171 | 1.0 | 5.0 | 0.00 | 0.00 | 0.00 | 45 | 1009.8 |
| 20260509070806 | 93 | 216 | 2.0 | 5.0 | 0.00 | 0.00 | 0.00 | 46 | 1009.8 |
| 20260509070703 | 93 | 235 | 1.0 | 8.0 | 0.00 | 0.00 | 0.00 | 45 | 1009.9 |
| 20260509070603 | 93 | 166 | 1.0 | 8.0 | 0.00 | 0.00 | 0.00 | 45 | 1009.9 |
| 20260509070506 | 92 | 144 | 2.0 | 8.0 | 0.00 | 0.00 | 0.00 | 45 | 1009.9 |
| 20260509070404 | 92 | 152 | 2.0 | 8.0 | 0.00 | 0.00 | 0.00 | 45 | 1009.9 |
| 20260509070303 | 93 | 181 | 1.0 | 8.0 | 0.00 | 0.00 | 0.00 | 45 | 1009.9 |
| 20260509070208 | 93 | 220 | 2.0 | 8.0 | 0.00 | 0.00 | 0.00 | 45 | 1009.9 |
| 20260509070101 | 93 | 238 | 4.0 | 8.0 | 0.00 | 0.00 | 0.00 | 45 | 1009.9 |
| 20260509070007 | 93 | 190 | 5.0 | 8.0 | 0.00 | 0.00 | 0.00 | 44 | 1010.0 |
| 20260509065905 | 93 | 197 | 3.0 | 9.0 | 0.00 | 0.00 | 0.00 | 46 | 1009.9 |
| 20260509065803 | 93 | 276 | 2.0 | 4.0 | 0.00 | 0.00 | 0.00 | 45 | 1010.0 |
| 20260509065703 | 92 | 277 | 2.0 | 4.0 | 0.00 | 0.00 | 0.00 | 45 | 1010.0 |
| 20260509065505 | 92 | 304 | 1.0 | 6.0 | 0.00 | 0.00 | 0.00 | 45 | 1010.0 |
| 20260509065306 | 92 | 5 | 1.0 | 6.0 | 0.00 | 0.00 | 0.00 | 44 | 1010.1 |
| 20260509065203 | 92 | 58 | 1.0 | 6.0 | 0.00 | 0.00 | 0.00 | 44 | 1010.1 |
| 20260509065102 | 92 | 76 | 2.0 | 6.0 | 0.00 | 0.00 | 0.00 | 44 | 1010.2 |
| 20260509065006 | 92 | 44 | 1.0 | 6.0 | 0.00 | 0.00 | 0.00 | 44 | 1010.2 |
| 20260509064704 | 92 | 228 | 2.0 | 6.0 | 0.00 | 0.00 | 0.00 | 44 | 1010.2 |
| 20260509064601 | 92 | 219 | 2.0 | 6.0 | 0.00 | 0.00 | 0.00 | 45 | 1010.2 |
| 20260509064507 | 92 | 267 | 3.0 | 6.0 | 0.00 | 0.00 | 0.00 | 45 | 1010.2 |
| 20260509064302 | 92 | 217 | 2.0 | 6.0 | 0.00 | 0.00 | 0.00 | 46 | 1010.3 |
| 20260509064204 | 92 | 158 | 3.0 | 6.0 | 0.00 | 0.00 | 0.00 | 46 | 1010.3 |
| 20260509063905 | 92 | 71 | 2.0 | 6.0 | 0.00 | 0.00 | 0.00 | 46 | 1010.3 |
| 20260509063703 | 92 | 78 | 2.0 | 6.0 | 0.00 | 0.00 | 0.00 | 47 | 1010.4 |
| 20260509063604 | 92 | 113 | 1.0 | 4.0 | 0.00 | 0.00 | 0.00 | 47 | 1010.3 |
| 20260509063403 | 92 | 188 | 1.0 | 4.0 | 0.00 | 0.00 | 0.00 | 48 | 1010.3 |
| 20260509063305 | 92 | 277 | 1.0 | 5.0 | 0.00 | 0.00 | 0.00 | 48 | 1010.4 |
| 20260509063059 | 91 | 219 | 2.0 | 8.0 | 0.00 | 0.00 | 0.00 | 47 | 1010.5 |
| 20260509063005 | 91 | 219 | 2.0 | 8.0 | 0.00 | 0.00 | 0.00 | 47 | 1010.5 |
| 20260509062902 | 91 | 159 | 2.0 | 8.0 | 0.00 | 0.00 | 0.00 | 47 | 1010.5 |
| 20260509062603 | 91 | 117 | 4.0 | 8.0 | 0.00 | 0.00 | 0.00 | 47 | 1010.5 |
| 20260509062306 | 91 | 136 | 3.0 | 6.0 | 0.00 | 0.00 | 0.00 | 48 | 1010.5 |
| 20260509062201 | 91 | 75 | 2.0 | 5.0 | 0.00 | 0.00 | 0.00 | 47 | 1010.5 |
| 20260509062105 | 91 | 91 | 1.0 | 4.0 | 0.00 | 0.00 | 0.00 | 47 | 1010.6 |
| 20260509062007 | 91 | 129 | 1.0 | 4.0 | 0.00 | 0.00 | 0.00 | 47 | 1010.6 |
| 20260509061903 | 91 | 99 | 1.0 | 4.0 | 0.00 | 0.00 | 0.00 | 47 | 1010.5 |
| 20260509061804 | 91 | 40 | 0.0 | 4.0 | 0.00 | 0.00 | 0.00 | 48 | 1010.6 |
| 20260509061703 | 91 | 338 | 0.0 | 4.0 | 0.00 | 0.00 | 0.00 | 48 | 1010.6 |
| 20260509061602 | 90 | 131 | 1.0 | 4.0 | 0.00 | 0.00 | 0.00 | 47 | 1010.5 |
| 20260509061401 | 90 | 111 | 3.0 | 5.0 | 0.00 | 0.00 | 0.00 | 47 | 1010.7 |
| 20260509061104 | 90 | 86 | 1.0 | 9.0 | 0.00 | 0.00 | 0.00 | 47 | 1010.6 |
| 20260509061005 | 90 | 57 | 1.0 | 9.0 | 0.00 | 0.00 | 0.00 | 47 | 1010.6 |
| 20260509060804 | 90 | 122 | 1.0 | 9.0 | 0.00 | 0.00 | 0.00 | 47 | 1010.7 |
| 20260509060703 | 90 | 128 | 3.0 | 9.0 | 0.00 | 0.00 | 0.00 | 47 | 1010.6 |
| 20260509060603 | 90 | 141 | 4.0 | 9.0 | 0.00 | 0.00 | 0.00 | 47 | 1010.7 |
| 20260509060506 | 90 | 146 | 6.0 | 9.0 | 0.00 | 0.00 | 0.00 | 47 | 1010.7 |
| 20260509060403 | 90 | 110 | 7.0 | 9.0 | 0.00 | 0.00 | 0.00 | 48 | 1010.7 |
| 20260509060203 | 90 | 142 | 2.0 | 7.0 | 0.00 | 0.00 | 0.00 | 48 | 1010.7 |
| 20260509060008 | 90 | 150 | 0.0 | 4.0 | 0.00 | 0.00 | 0.00 | 48 | 1010.8 |
| 20260509055903 | 90 | 31 | 0.0 | 4.0 | 0.00 | 0.00 | 0.00 | 48 | 1010.9 |
| 20260509055805 | 90 | 31 | 1.0 | 5.0 | 0.00 | 0.00 | 0.00 | 47 | 1010.8 |
| 20260509055704 | 90 | 355 | 1.0 | 5.0 | 0.00 | 0.00 | 0.00 | 47 | 1010.8 |
| 20260509055601 | 90 | 38 | 2.0 | 8.0 | 0.00 | 0.00 | 0.00 | 47 | 1010.8 |
| 20260509055506 | 90 | 144 | 2.0 | 8.0 | 0.00 | 0.00 | 0.00 | 48 | 1010.8 |
| 20260509055402 | 90 | 107 | 2.0 | 8.0 | 0.00 | 0.00 | 0.00 | 47 | 1010.8 |
| 20260509055306 | 90 | 98 | 2.0 | 8.0 | 0.00 | 0.00 | 0.00 | 47 | 1010.8 |
| 20260509055202 | 90 | 134 | 3.0 | 8.0 | 0.00 | 0.00 | 0.00 | 47 | 1010.9 |
| 20260509055105 | 90 | 118 | 4.0 | 8.0 | 0.00 | 0.00 | 0.00 | 47 | 1010.8 |
| 20260509055005 | 90 | 140 | 4.0 | 8.0 | 0.00 | 0.00 | 0.00 | 48 | 1010.8 |
| 20260509054902 | 90 | 168 | 5.0 | 8.0 | 0.00 | 0.00 | 0.00 | 48 | 1010.8 |
| 20260509054803 | 90 | 126 | 5.0 | 8.0 | 0.00 | 0.00 | 0.00 | 48 | 1010.9 |
| 20260509054704 | 90 | 190 | 3.0 | 7.0 | 0.00 | 0.00 | 0.00 | 48 | 1010.9 |
| 20260509054605 | 90 | 144 | 3.0 | 7.0 | 0.00 | 0.00 | 0.00 | 48 | 1010.9 |
| 20260509054505 | 89 | 181 | 2.0 | 7.0 | 0.00 | 0.00 | 0.00 | 48 | 1010.9 |
| 20260509054202 | 89 | 108 | 2.0 | 7.0 | 0.00 | 0.00 | 0.00 | 48 | 1010.9 |
| 20260509054103 | 89 | 145 | 2.0 | 7.0 | 0.00 | 0.00 | 0.00 | 48 | 1010.9 |
| 20260509054005 | 89 | 116 | 1.0 | 7.0 | 0.00 | 0.00 | 0.00 | 48 | 1010.9 |
| 20260509053903 | 89 | 111 | 1.0 | 7.0 | 0.00 | 0.00 | 0.00 | 48 | 1010.9 |
| 20260509053801 | 89 | 110 | 3.0 | 7.0 | 0.00 | 0.00 | 0.00 | 48 | 1010.9 |
| 20260509053604 | 89 | 150 | 3.0 | 7.0 | 0.00 | 0.00 | 0.00 | 48 | 1011.0 |
| 20260509053504 | 89 | 178 | 4.0 | 7.0 | 0.00 | 0.00 | 0.00 | 48 | 1010.9 |
| 20260509053403 | 89 | 123 | 3.0 | 7.0 | 0.00 | 0.00 | 0.00 | 49 | 1011.0 |
| 20260509053303 | 89 | 180 | 2.0 | 7.0 | 0.00 | 0.00 | 0.00 | 49 | 1010.9 |
| 20260509053203 | 89 | 135 | 2.0 | 7.0 | 0.00 | 0.00 | 0.00 | 49 | 1011.0 |
| 20260509053104 | 89 | 183 | 4.0 | 7.0 | 0.00 | 0.00 | 0.00 | 49 | 1011.0 |
| 20260509053003 | 89 | 142 | 4.0 | 7.0 | 0.00 | 0.00 | 0.00 | 49 | 1011.0 |
| 20260509052903 | 89 | 172 | 2.0 | 5.0 | 0.00 | 0.00 | 0.00 | 49 | 1011.0 |
| 20260509052801 | 89 | 161 | 2.0 | 5.0 | 0.00 | 0.00 | 0.00 | 49 | 1011.1 |
| 20260509052704 | 89 | 140 | 2.0 | 5.0 | 0.00 | 0.00 | 0.00 | 49 | 1011.0 |
| 20260509052506 | 89 | 131 | 3.0 | 5.0 | 0.00 | 0.00 | 0.00 | 48 | 1011.1 |
| 20260509052404 | 88 | 131 | 3.0 | 6.0 | 0.00 | 0.00 | 0.00 | 49 | 1011.1 |
| 20260509052301 | 88 | 126 | 3.0 | 6.0 | 0.00 | 0.00 | 0.00 | 49 | 1011.1 |
| 20260509052205 | 88 | 173 | 3.0 | 6.0 | 0.00 | 0.00 | 0.00 | 49 | 1011.1 |
| 20260509052007 | 88 | 154 | 2.0 | 6.0 | 0.00 | 0.00 | 0.00 | 50 | 1011.1 |
| 20260509051904 | 88 | 166 | 1.0 | 6.0 | 0.00 | 0.00 | 0.00 | 50 | 1011.1 |
| 20260509051804 | 88 | 165 | 2.0 | 6.0 | 0.00 | 0.00 | 0.00 | 50 | 1011.1 |
| 20260509051603 | 88 | 185 | 2.0 | 7.0 | 0.00 | 0.00 | 0.00 | 51 | 1011.1 |
| 20260509051504 | 88 | 188 | 2.0 | 7.0 | 0.00 | 0.00 | 0.00 | 51 | 1011.1 |
| 20260509051403 | 88 | 186 | 3.0 | 7.0 | 0.00 | 0.00 | 0.00 | 49 | 1011.1 |
| 20260509051301 | 88 | 161 | 4.0 | 7.0 | 0.00 | 0.00 | 0.00 | 49 | 1011.2 |
| 20260509051202 | 88 | 142 | 4.0 | 7.0 | 0.00 | 0.00 | 0.00 | 50 | 1011.2 |
| 20260509051103 | 88 | 186 | 3.0 | 6.0 | 0.00 | 0.00 | 0.00 | 50 | 1011.2 |
| 20260509051006 | 88 | 184 | 3.0 | 7.0 | 0.00 | 0.00 | 0.00 | 50 | 1011.1 |
| 20260509050904 | 88 | 74 | 3.0 | 7.0 | 0.00 | 0.00 | 0.00 | 50 | 1011.2 |
| 20260509050804 | 88 | 52 | 3.0 | 7.0 | 0.00 | 0.00 | 0.00 | 49 | 1011.2 |
| 20260509050703 | 88 | 118 | 4.0 | 7.0 | 0.00 | 0.00 | 0.00 | 49 | 1011.3 |
| 20260509050603 | 88 | 121 | 4.0 | 7.0 | 0.00 | 0.00 | 0.00 | 50 | 1011.2 |
| 20260509050506 | 88 | 134 | 2.0 | 7.0 | 0.00 | 0.00 | 0.00 | 50 | 1011.3 |